ANA88 KMCO-UUEE

Flight info

Callsign ANA88
Flight time 11h 0m
Altitude 34000
Route JEEMY4 PAINN SHRKS KJ06S TEEEM Q99 RAANE FEDOX SANNY MAULS PLDGE LOYDD OGESY Q227 STUBN TYROD SYR Q844 VIBRU REEDO IKLAX KEMVI Q852 DICEN ANCER N817A IRLOK 5550N 5640N 5630N 5620N PIKIL SOVED MIMKU ROBBO SURAT PETIL ROKAM VEDEN M869 LEP M864 DIPOP
Aircraft A388/J-SADE2E3FGHIJ3J4J5M1RWXY/LB1D1

Departure

Time 2026-04-25 12:22
Airport Orlando International Airport (KMCO)

Arrival

Time 2026-04-25 23:23
Airport Sheremetyevo International Airport (UUEE)
Time Latitude Longitude Altitude Speed Heading
2026-04-25 11:10 28.42627 -81.29996 108 ft 0 kts 240°
2026-04-25 11:51 28.42632 -81.29985 106 ft 2 kts 240°
2026-04-25 11:51 28.42640 -81.29969 106 ft 2 kts 240°
2026-04-25 11:51 28.42648 -81.29953 104 ft 2 kts 240°
2026-04-25 11:52 28.42657 -81.29936 104 ft 2 kts 241°
2026-04-25 11:52 28.42665 -81.29920 104 ft 2 kts 241°
2026-04-25 11:52 28.42673 -81.29904 104 ft 2 kts 237°
2026-04-25 11:52 28.42684 -81.29890 104 ft 2 kts 223°
2026-04-25 11:53 28.42693 -81.29884 108 ft 0 kts 198°
2026-04-25 12:01 28.42673 -81.29889 108 ft 8 kts 184°
2026-04-25 12:02 28.42617 -81.29875 94 ft 0 kts 135°
2026-04-25 12:04 28.42612 -81.29869 107 ft 4 kts 128°
2026-04-25 12:04 28.42600 -81.29820 105 ft 10 kts 91°
2026-04-25 12:05 28.42589 -81.29733 103 ft 11 kts 129°
2026-04-25 12:05 28.42524 -81.29705 103 ft 11 kts 175°
2026-04-25 12:05 28.42446 -81.29700 104 ft 11 kts 181°
2026-04-25 12:05 28.42363 -81.29703 103 ft 10 kts 182°
2026-04-25 12:06 28.42296 -81.29720 102 ft 9 kts 228°
2026-04-25 12:06 28.42281 -81.29784 102 ft 8 kts 269°
2026-04-25 12:06 28.42280 -81.29850 104 ft 8 kts 270°
2026-04-25 12:06 28.42280 -81.29919 105 ft 9 kts 270°
2026-04-25 12:07 28.42279 -81.29999 105 ft 11 kts 270°
2026-04-25 12:07 28.42279 -81.30094 105 ft 13 kts 269°
2026-04-25 12:07 28.42276 -81.30202 105 ft 14 kts 268°
2026-04-25 12:07 28.42274 -81.30318 105 ft 15 kts 269°
2026-04-25 12:08 28.42272 -81.30443 105 ft 15 kts 269°
2026-04-25 12:08 28.42264 -81.30548 108 ft 13 kts 263°
2026-04-25 12:08 28.42256 -81.30657 106 ft 14 kts 266°
2026-04-25 12:08 28.42248 -81.30775 109 ft 15 kts 266°
2026-04-25 12:09 28.42236 -81.30907 109 ft 17 kts 264°
2026-04-25 12:09 28.42239 -81.31053 99 ft 22 kts 281°
2026-04-25 12:09 28.42267 -81.31215 99 ft 19 kts 273°
2026-04-25 12:09 28.42270 -81.31365 102 ft 18 kts 268°
2026-04-25 12:10 28.42262 -81.31504 103 ft 17 kts 270°
2026-04-25 12:10 28.42263 -81.31640 103 ft 17 kts 270°
2026-04-25 12:10 28.42265 -81.31769 106 ft 15 kts 271°
2026-04-25 12:10 28.42264 -81.31883 109 ft 14 kts 268°
2026-04-25 12:11 28.42293 -81.31973 107 ft 12 kts 331°
2026-04-25 12:11 28.42377 -81.31988 108 ft 13 kts 358°
2026-04-25 12:11 28.42473 -81.31992 107 ft 14 kts 358°
2026-04-25 12:11 28.42578 -81.31994 107 ft 15 kts 359°
2026-04-25 12:12 28.42689 -81.31992 108 ft 17 kts
2026-04-25 12:12 28.42769 -81.31991 107 ft 18 kts
2026-04-25 12:12 28.42943 -81.31995 104 ft 20 kts 359°
2026-04-25 12:12 28.43083 -81.31997 104 ft 20 kts 359°
2026-04-25 12:13 28.43222 -81.31999 104 ft 20 kts 360°
2026-04-25 12:13 28.43362 -81.31999 103 ft 20 kts 360°
2026-04-25 12:13 28.43493 -81.31999 106 ft 18 kts
2026-04-25 12:13 28.43615 -81.31999 107 ft 17 kts 360°
2026-04-25 12:14 28.43733 -81.32002 107 ft 17 kts 358°
2026-04-25 12:14 28.43845 -81.32007 108 ft 16 kts 358°
2026-04-25 12:14 28.43952 -81.32007 109 ft 16 kts 360°
2026-04-25 12:14 28.44064 -81.32007 109 ft 16 kts
2026-04-25 12:15 28.44181 -81.32007 107 ft 18 kts
2026-04-25 12:15 28.44310 -81.32007 108 ft 19 kts
2026-04-25 12:15 28.44444 -81.32007 106 ft 20 kts 360°
2026-04-25 12:15 28.44577 -81.32007 106 ft 15 kts 359°
2026-04-25 12:16 28.44677 -81.32016 103 ft 12 kts 335°
2026-04-25 12:16 28.44713 -81.32087 104 ft 8 kts 275°
2026-04-25 12:16 28.44713 -81.32091 104 ft 0 kts 272°
2026-04-25 12:19 28.44713 -81.32096 104 ft 4 kts 272°
2026-04-25 12:19 28.44694 -81.32207 104 ft 12 kts 220°
2026-04-25 12:19 28.44637 -81.32227 104 ft 0 kts 181°
2026-04-25 12:21 28.44630 -81.32227 106 ft 7 kts 181°
2026-04-25 12:21 28.44368 -81.32228 107 ft 75 kts 179°
2026-04-25 12:21 28.43612 -81.32217 107 ft 140 kts 179°
2026-04-25 12:22 28.42516 -81.32205 304 ft 162 kts 179°
2026-04-25 12:22 28.41387 -81.32183 892 ft 162 kts 179°
2026-04-25 12:22 28.40262 -81.32245 1430 ft 164 kts 190°
2026-04-25 12:22 28.39132 -81.32595 1892 ft 173 kts 201°
2026-04-25 12:23 28.37986 -81.33162 2152 ft 188 kts 206°
2026-04-25 12:23 28.36776 -81.33872 2274 ft 202 kts 208°
2026-04-25 12:23 28.35546 -81.34708 2373 ft 214 kts 217°
2026-04-25 12:23 28.34403 -81.35918 2485 ft 234 kts 230°
2026-04-25 12:24 28.33378 -81.37425 2682 ft 255 kts 232°
2026-04-25 12:24 28.32231 -81.39048 3172 ft 263 kts 230°
2026-04-25 12:24 28.31170 -81.40786 3725 ft 270 kts 243°
2026-04-25 12:24 28.30508 -81.42729 4427 ft 269 kts 261°
2026-04-25 12:25 28.30270 -81.44832 5098 ft 271 kts 263°
2026-04-25 12:25 28.30039 -81.46968 5738 ft 274 kts 263°
2026-04-25 12:25 28.29801 -81.49123 6377 ft 276 kts 264°
2026-04-25 12:25 28.29899 -81.51287 6876 ft 278 kts 287°
2026-04-25 12:26 28.30789 -81.53211 7000 ft 278 kts 312°
2026-04-25 12:26 28.32276 -81.54628 7020 ft 279 kts 323°
2026-04-25 12:26 28.33825 -81.55933 7017 ft 277 kts 323°
2026-04-25 12:26 28.35440 -81.57106 7005 ft 277 kts 339°
2026-04-25 12:27 28.37333 -81.57533 7148 ft 280 kts 353°
2026-04-25 12:27 28.39283 -81.57770 7700 ft 280 kts 353°
2026-04-25 12:27 28.41223 -81.57996 8401 ft 280 kts 353°
2026-04-25 12:27 28.43175 -81.58213 9070 ft 282 kts 353°
2026-04-25 12:28 28.45135 -81.58419 9724 ft 284 kts 353°
2026-04-25 12:28 28.47103 -81.58617 10272 ft 289 kts 353°
2026-04-25 12:28 28.49173 -81.58824 10423 ft 307 kts 354°
2026-04-25 12:28 28.51354 -81.58602 10570 ft 326 kts 14°
2026-04-25 12:29 28.53557 -81.57781 10766 ft 340 kts 18°
2026-04-25 12:29 28.55034 -81.57168 11098 ft 342 kts 18°
2026-04-25 12:29 28.58033 -81.55924 11820 ft 345 kts 18°
2026-04-25 12:29 28.59537 -81.55315 12170 ft 346 kts 17°
2026-04-25 12:30 28.61819 -81.54406 12700 ft 349 kts 17°
2026-04-25 12:30 28.64125 -81.53499 13245 ft 351 kts 17°
2026-04-25 12:30 28.66434 -81.52594 13783 ft 354 kts 17°
2026-04-25 12:30 28.68774 -81.51680 14230 ft 357 kts 17°
2026-04-25 12:31 28.71136 -81.50757 14674 ft 360 kts 17°
2026-04-25 12:31 28.73508 -81.49829 15123 ft 363 kts 17°
2026-04-25 12:31 28.75905 -81.48890 15576 ft 365 kts 17°
2026-04-25 12:31 28.78315 -81.47947 16008 ft 368 kts 17°
2026-04-25 12:32 28.80716 -81.47005 16439 ft 371 kts 17°
2026-04-25 12:32 28.83201 -81.46031 16889 ft 373 kts 17°
2026-04-25 12:32 28.85662 -81.45065 17318 ft 376 kts 17°
2026-04-25 12:32 28.88119 -81.44100 17726 ft 379 kts 17°
2026-04-25 12:33 28.90618 -81.43118 18162 ft 381 kts 17°
2026-04-25 12:33 28.93147 -81.42173 18547 ft 382 kts 12°
2026-04-25 12:33 28.95763 -81.41651 18937 ft 381 kts
2026-04-25 12:33 28.98409 -81.41623 19301 ft 381 kts 353°
2026-04-25 12:34 29.01048 -81.41942 19669 ft 382 kts 352°
2026-04-25 12:34 29.03691 -81.42245 20033 ft 384 kts 352°
2026-04-25 12:34 29.06363 -81.42534 20390 ft 386 kts 352°
2026-04-25 12:34 29.08147 -81.42727 20628 ft 387 kts 352°
2026-04-25 12:35 29.11751 -81.43111 21108 ft 390 kts 353°
2026-04-25 12:35 29.14459 -81.43368 21435 ft 393 kts 353°
2026-04-25 12:35 29.17188 -81.43616 21792 ft 394 kts 353°
2026-04-25 12:35 29.19938 -81.43869 22121 ft 396 kts 353°
2026-04-25 12:36 29.22687 -81.44125 22462 ft 398 kts 353°
2026-04-25 12:36 29.25444 -81.44385 22799 ft 400 kts 353°
2026-04-25 12:36 29.28238 -81.44650 23126 ft 403 kts 353°
2026-04-25 12:36 29.31047 -81.44918 23466 ft 405 kts 353°
2026-04-25 12:37 29.33855 -81.45186 23757 ft 407 kts 353°
2026-04-25 12:37 29.36671 -81.45454 24044 ft 408 kts 353°
2026-04-25 12:37 29.39481 -81.45721 24334 ft 409 kts 353°
2026-04-25 12:37 29.42325 -81.45992 24607 ft 411 kts 353°
2026-04-25 12:38 29.45180 -81.46265 24917 ft 413 kts 354°
2026-04-25 12:38 29.48045 -81.46539 25195 ft 415 kts 354°
2026-04-25 12:38 29.50929 -81.46814 25514 ft 416 kts 354°
2026-04-25 12:38 29.53827 -81.47091 25830 ft 418 kts 354°
2026-04-25 12:39 29.56725 -81.47368 26151 ft 420 kts 354°
2026-04-25 12:39 29.59644 -81.47646 26492 ft 421 kts 354°
2026-04-25 12:39 29.62578 -81.47913 26809 ft 424 kts 354°
2026-04-25 12:39 29.65544 -81.48179 26915 ft 432 kts 355°
2026-04-25 12:40 29.68573 -81.48451 26991 ft 440 kts 355°
2026-04-25 12:40 29.71657 -81.48729 27093 ft 449 kts 355°
2026-04-25 12:40 29.74801 -81.49013 27214 ft 457 kts 355°
2026-04-25 12:40 29.77978 -81.49301 27537 ft 460 kts 355°
2026-04-25 12:41 29.81173 -81.49591 27940 ft 462 kts 355°
2026-04-25 12:41 29.84329 -81.49878 28310 ft 464 kts 355°
2026-04-25 12:41 29.87536 -81.50222 28679 ft 466 kts 352°
2026-04-25 12:41 29.90741 -81.50947 29049 ft 468 kts 346°
2026-04-25 12:42 29.93871 -81.52038 29414 ft 471 kts 342°
2026-04-25 12:42 29.95942 -81.52796 29642 ft 472 kts 343°
2026-04-25 12:42 30.00148 -81.54295 30122 ft 475 kts 343°
2026-04-25 12:42 30.03318 -81.55418 30422 ft 477 kts 343°
2026-04-25 12:43 30.06499 -81.56550 30728 ft 480 kts 343°
2026-04-25 12:43 30.09701 -81.57693 31022 ft 482 kts 343°
2026-04-25 12:43 30.16143 -81.60000 31604 ft 487 kts 343°
2026-04-25 12:44 30.19380 -81.61161 31899 ft 489 kts 343°
2026-04-25 12:44 30.22643 -81.62333 32199 ft 492 kts 343°
2026-04-25 12:44 30.29206 -81.64691 32772 ft 496 kts 343°
2026-04-25 12:45 30.32481 -81.65869 32964 ft 498 kts 343°
2026-04-25 12:45 30.42406 -81.69445 32962 ft 499 kts 343°
2026-04-25 12:46 30.48847 -81.71769 32960 ft 500 kts 343°
2026-04-25 12:46 30.55333 -81.74113 32962 ft 482 kts 343°
2026-04-25 12:47 30.61761 -81.76547 32963 ft 491 kts 339°
2026-04-25 12:47 30.67811 -81.80054 32963 ft 492 kts 333°
2026-04-25 12:48 30.73925 -81.83829 32966 ft 492 kts 333°
2026-04-25 12:48 30.79961 -81.87550 32968 ft 492 kts 333°
2026-04-25 12:49 30.85999 -81.91291 32969 ft 492 kts 333°
2026-04-25 12:49 30.92052 -81.95049 32966 ft 492 kts 333°
2026-04-25 12:50 30.98222 -81.98432 32968 ft 491 kts 343°
2026-04-25 12:50 31.04939 -81.99601 32965 ft 490 kts
2026-04-25 12:51 31.11744 -81.99101 32964 ft 490 kts
2026-04-25 12:51 31.18560 -81.98613 32961 ft 490 kts
2026-04-25 12:52 31.25370 -81.98115 32969 ft 491 kts
2026-04-25 12:52 31.32192 -81.97606 32973 ft 491 kts
2026-04-25 12:53 31.39011 -81.97096 32980 ft 491 kts
2026-04-25 12:53 31.45830 -81.96585 32986 ft 491 kts
2026-04-25 12:54 31.52620 -81.96076 32990 ft 492 kts
2026-04-25 12:54 31.59467 -81.95562 32991 ft 492 kts
2026-04-25 12:55 31.65147 -81.95136 32987 ft 492 kts
2026-04-25 12:55 31.73091 -81.94538 32979 ft 492 kts
2026-04-25 12:56 31.79968 -81.94020 32968 ft 493 kts
2026-04-25 12:56 31.86690 -81.93512 32955 ft 484 kts
2026-04-25 12:57 31.93419 -81.93004 32955 ft 485 kts
2026-04-25 12:57 32.00166 -81.92492 32952 ft 485 kts
2026-04-25 12:58 32.06905 -81.91982 32949 ft 485 kts
2026-04-25 12:58 32.13591 -81.90945 32951 ft 486 kts 13°
2026-04-25 12:59 32.19952 -81.88198 32955 ft 488 kts 26°
2026-04-25 12:59 32.26019 -81.84611 32953 ft 487 kts 25°
2026-04-25 13:00 32.30040 -81.82268 32951 ft 488 kts 25°
2026-04-25 13:00 32.38169 -81.77503 32924 ft 487 kts 25°
2026-04-25 13:01 32.44238 -81.73929 32926 ft 488 kts 25°
2026-04-25 13:01 32.50315 -81.70343 32924 ft 488 kts 25°
2026-04-25 13:02 32.56349 -81.66775 32926 ft 487 kts 25°
2026-04-25 13:02 32.62427 -81.63179 32951 ft 488 kts 25°
2026-04-25 13:03 32.68502 -81.59574 32952 ft 488 kts 25°
2026-04-25 13:03 32.74576 -81.55966 32953 ft 488 kts 25°
2026-04-25 13:04 32.80663 -81.52344 32945 ft 489 kts 25°
2026-04-25 13:04 32.86762 -81.48712 32935 ft 490 kts 25°
2026-04-25 13:05 32.92859 -81.45077 32930 ft 490 kts 25°
2026-04-25 13:05 32.98955 -81.41438 32937 ft 490 kts 25°
2026-04-25 13:06 33.05060 -81.37783 32939 ft 490 kts 25°
2026-04-25 13:06 33.11141 -81.34137 32932 ft 490 kts 25°
2026-04-25 13:07 33.17194 -81.30502 32946 ft 490 kts 26°
2026-04-25 13:07 33.23320 -81.26817 32943 ft 490 kts 26°
2026-04-25 13:08 33.29379 -81.23169 32937 ft 490 kts 26°
2026-04-25 13:08 33.35463 -81.19508 32945 ft 490 kts 26°
2026-04-25 13:09 33.41577 -81.15810 32923 ft 490 kts 26°
2026-04-25 13:09 33.47631 -81.12142 32919 ft 491 kts 26°
2026-04-25 13:10 33.53765 -81.08427 32916 ft 491 kts 26°
2026-04-25 13:10 33.59871 -81.04723 32917 ft 492 kts 26°
2026-04-25 13:11 33.65965 -81.01019 32914 ft 491 kts 26°
2026-04-25 13:11 33.72020 -80.97332 32916 ft 491 kts 26°
2026-04-25 13:12 33.78117 -80.93615 32910 ft 491 kts 26°
2026-04-25 13:12 33.82153 -80.91151 32907 ft 491 kts 26°
2026-04-25 13:13 33.89744 -80.85035 32908 ft 492 kts 37°
2026-04-25 13:13 33.95096 -80.80019 32909 ft 491 kts 37°
2026-04-25 13:14 34.00532 -80.74942 32908 ft 492 kts 37°
2026-04-25 13:14 34.05025 -80.70730 32908 ft 493 kts 37°
2026-04-25 13:15 34.11316 -80.64805 32931 ft 493 kts 37°
2026-04-25 13:15 34.15856 -80.60519 32939 ft 494 kts 37°
2026-04-25 13:16 34.21267 -80.55401 32943 ft 493 kts 37°
2026-04-25 13:16 34.26636 -80.50324 32943 ft 494 kts 37°
2026-04-25 13:17 34.32078 -80.45301 32944 ft 493 kts 36°
2026-04-25 13:17 34.37536 -80.40291 32937 ft 493 kts 36°
2026-04-25 13:18 34.42999 -80.35247 32920 ft 493 kts 37°
2026-04-25 13:18 34.48451 -80.30202 32923 ft 493 kts 37°
2026-04-25 13:19 34.53860 -80.25186 32924 ft 493 kts 37°
2026-04-25 13:19 34.58439 -80.20936 32924 ft 494 kts 37°
2026-04-25 13:20 34.64803 -80.15020 32927 ft 494 kts 37°
2026-04-25 13:20 34.70215 -80.09973 32928 ft 494 kts 37°
2026-04-25 13:21 34.75677 -80.04889 32920 ft 494 kts 37°
2026-04-25 13:21 34.81137 -79.99808 32926 ft 495 kts 37°
2026-04-25 13:22 34.86691 -79.94842 32924 ft 495 kts 35°
2026-04-25 13:23 34.95088 -79.87494 32929 ft 497 kts 35°
2026-04-25 13:23 35.00676 -79.82550 32933 ft 496 kts 35°
2026-04-25 13:24 35.06258 -79.77597 32930 ft 496 kts 35°
2026-04-25 13:24 35.11853 -79.72683 32883 ft 496 kts 31°
2026-04-25 13:25 35.18161 -79.69363 32904 ft 495 kts 13°
2026-04-25 13:25 35.24969 -79.68315 32903 ft 493 kts
2026-04-25 13:26 35.31798 -79.67581 32904 ft 494 kts
2026-04-25 13:26 35.38647 -79.66842 32902 ft 494 kts
2026-04-25 13:27 35.45458 -79.66116 32914 ft 494 kts
2026-04-25 13:27 35.52331 -79.65386 32913 ft 495 kts
2026-04-25 13:28 35.59195 -79.64655 32920 ft 495 kts
2026-04-25 13:28 35.66070 -79.63921 32923 ft 495 kts
2026-04-25 13:29 35.72914 -79.63191 32922 ft 496 kts
2026-04-25 13:29 35.79777 -79.62455 32922 ft 495 kts
2026-04-25 13:30 35.90096 -79.61347 32899 ft 496 kts
2026-04-25 13:31 36.00406 -79.60289 32905 ft 495 kts
2026-04-25 13:31 36.07282 -79.60011 32909 ft 494 kts 359°
2026-04-25 13:32 36.14156 -79.59742 32905 ft 495 kts 359°
2026-04-25 13:32 36.20995 -79.59425 32897 ft 494 kts 359°
2026-04-25 13:33 36.27919 -79.59092 32886 ft 494 kts 359°
2026-04-25 13:33 36.34737 -79.58763 32893 ft 494 kts 359°
2026-04-25 13:34 36.41588 -79.58433 32897 ft 496 kts 359°
2026-04-25 13:34 36.48473 -79.58100 32895 ft 495 kts 359°
2026-04-25 13:35 36.55371 -79.57765 32892 ft 496 kts 359°
2026-04-25 13:35 36.62262 -79.57431 32891 ft 496 kts 359°
2026-04-25 13:36 36.69167 -79.57096 32888 ft 496 kts 359°
2026-04-25 13:36 36.76065 -79.56760 32882 ft 496 kts 359°
2026-04-25 13:37 36.82946 -79.56424 32874 ft 496 kts 359°
2026-04-25 13:37 36.89838 -79.56087 32873 ft 496 kts 359°
2026-04-25 13:38 36.96749 -79.55749 32877 ft 496 kts 359°
2026-04-25 13:38 37.03625 -79.54692 32874 ft 502 kts
2026-04-25 13:39 37.10476 -79.52924 32872 ft 502 kts
2026-04-25 13:39 37.17314 -79.51205 32881 ft 502 kts
2026-04-25 13:40 37.24131 -79.49474 32883 ft 502 kts
2026-04-25 13:40 37.30980 -79.47728 32890 ft 503 kts
2026-04-25 13:41 37.37854 -79.45971 32891 ft 504 kts
2026-04-25 13:41 37.44717 -79.44212 32896 ft 503 kts
2026-04-25 13:42 37.51537 -79.42461 32903 ft 503 kts
2026-04-25 13:42 37.58400 -79.40697 32898 ft 503 kts
2026-04-25 13:43 37.65266 -79.38928 32929 ft 504 kts
2026-04-25 13:43 37.72095 -79.37164 32948 ft 503 kts
2026-04-25 13:44 37.78954 -79.35392 32960 ft 504 kts
2026-04-25 13:44 37.85807 -79.33413 32970 ft 508 kts 13°
2026-04-25 13:45 37.91321 -79.30544 32951 ft 516 kts 23°
2026-04-25 13:45 37.98541 -79.25258 32922 ft 517 kts 25°
2026-04-25 13:46 38.04783 -79.20687 32897 ft 518 kts 26°
2026-04-25 13:46 38.10999 -79.16097 32891 ft 517 kts 26°
2026-04-25 13:47 38.17225 -79.11482 32908 ft 518 kts 26°
2026-04-25 13:47 38.23445 -79.06859 32916 ft 517 kts 26°
2026-04-25 13:48 38.29658 -79.02234 32908 ft 518 kts 26°
2026-04-25 13:48 38.35887 -78.97586 32910 ft 518 kts 26°
2026-04-25 13:49 38.42113 -78.92932 32907 ft 518 kts 26°
2026-04-25 13:49 38.48316 -78.88286 32907 ft 517 kts 26°
2026-04-25 13:50 38.54495 -78.83646 32901 ft 517 kts 26°
2026-04-25 13:50 38.60655 -78.79012 32897 ft 518 kts 26°
2026-04-25 13:51 38.66855 -78.74340 32904 ft 516 kts 26°
2026-04-25 13:51 38.73016 -78.69689 32907 ft 516 kts 26°
2026-04-25 13:52 38.79213 -78.65002 32909 ft 518 kts 26°
2026-04-25 13:52 38.85421 -78.60295 32910 ft 517 kts 26°
2026-04-25 13:53 38.91608 -78.55594 32908 ft 517 kts 26°
2026-04-25 13:53 38.97794 -78.50885 32914 ft 517 kts 26°
2026-04-25 13:54 39.03965 -78.46177 32915 ft 517 kts 26°
2026-04-25 13:54 39.08748 -78.42522 32916 ft 517 kts 26°
2026-04-25 13:55 39.14940 -78.37783 32926 ft 518 kts 26°
2026-04-25 13:55 39.20906 -78.32502 32926 ft 521 kts 31°
2026-04-25 13:56 39.26788 -78.27103 32927 ft 520 kts 31°
2026-04-25 13:56 39.32690 -78.21680 32932 ft 520 kts 31°
2026-04-25 13:57 39.38518 -78.16301 32945 ft 520 kts 31°
2026-04-25 13:57 39.44402 -78.10855 32939 ft 520 kts 31°
2026-04-25 13:58 39.50281 -78.05401 32936 ft 520 kts 31°
2026-04-25 13:58 39.56158 -77.99939 32945 ft 518 kts 31°
2026-04-25 13:59 39.61032 -77.95401 32958 ft 520 kts 31°
2026-04-25 13:59 39.67860 -77.89029 32956 ft 520 kts 31°
2026-04-25 14:00 39.72739 -77.84466 32955 ft 520 kts 31°
2026-04-25 14:00 39.78815 -77.79493 32953 ft 511 kts 20°
2026-04-25 14:01 39.85372 -77.76338 32965 ft 502 kts
2026-04-25 14:01 39.92110 -77.73895 32955 ft 503 kts 10°
2026-04-25 14:02 39.98831 -77.71410 32961 ft 502 kts 10°
2026-04-25 14:02 40.05550 -77.68939 32957 ft 502 kts 10°
2026-04-25 14:03 40.12262 -77.66474 32951 ft 501 kts
2026-04-25 14:03 40.18985 -77.64000 32954 ft 501 kts 10°
2026-04-25 14:04 40.25696 -77.61525 32955 ft 502 kts 10°
2026-04-25 14:04 40.32413 -77.59041 32955 ft 501 kts 10°
2026-04-25 14:05 40.39080 -77.56571 32953 ft 500 kts 10°
2026-04-25 14:05 40.45795 -77.54081 32953 ft 502 kts 10°
2026-04-25 14:06 40.52508 -77.51583 32951 ft 501 kts 10°
2026-04-25 14:06 40.59215 -77.49085 32955 ft 502 kts 10°
2026-04-25 14:07 40.65939 -77.46573 32955 ft 501 kts 10°
2026-04-25 14:07 40.72594 -77.44081 32956 ft 501 kts 10°
2026-04-25 14:08 40.79341 -77.41833 32953 ft 498 kts
2026-04-25 14:08 40.86113 -77.39927 32955 ft 497 kts
2026-04-25 14:09 40.92051 -77.38198 32953 ft 498 kts
2026-04-25 14:09 40.98798 -77.36187 32955 ft 497 kts
2026-04-25 14:10 41.04419 -77.34502 32946 ft 497 kts
2026-04-25 14:10 41.12276 -77.32143 32950 ft 497 kts
2026-04-25 14:11 41.19058 -77.30104 32943 ft 497 kts
2026-04-25 14:11 41.25794 -77.28073 32960 ft 497 kts
2026-04-25 14:12 41.32539 -77.26036 32945 ft 497 kts
2026-04-25 14:12 41.39272 -77.23998 32952 ft 498 kts
2026-04-25 14:13 41.45977 -77.21962 32953 ft 497 kts
2026-04-25 14:13 41.52719 -77.19913 32959 ft 497 kts
2026-04-25 14:14 41.59462 -77.17859 32966 ft 497 kts
2026-04-25 14:14 41.66215 -77.15797 32966 ft 497 kts
2026-04-25 14:15 41.72904 -77.13750 32966 ft 497 kts
2026-04-25 14:15 41.79645 -77.11680 32969 ft 497 kts
2026-04-25 14:16 41.86387 -77.09602 32965 ft 496 kts
2026-04-25 14:16 41.93134 -77.07516 32976 ft 497 kts
2026-04-25 14:17 41.99798 -77.05452 32974 ft 497 kts
2026-04-25 14:17 42.06567 -77.03336 32977 ft 498 kts
2026-04-25 14:18 42.13116 -76.99986 32981 ft 509 kts 21°
2026-04-25 14:18 42.19464 -76.95681 32981 ft 510 kts 20°
2026-04-25 14:19 42.25794 -76.91453 32984 ft 511 kts 20°
2026-04-25 14:19 42.32162 -76.87169 32980 ft 511 kts 20°
2026-04-25 14:20 42.38510 -76.82876 32976 ft 510 kts 20°
2026-04-25 14:20 42.44870 -76.78567 32981 ft 511 kts 20°
2026-04-25 14:21 42.51077 -76.73762 32985 ft 515 kts 25°
2026-04-25 14:21 42.57231 -76.68772 32984 ft 514 kts 25°
2026-04-25 14:22 42.63368 -76.63794 32987 ft 515 kts 25°
2026-04-25 14:22 42.69464 -76.58828 32980 ft 516 kts 25°
2026-04-25 14:23 42.75567 -76.53841 32986 ft 515 kts 25°
2026-04-25 14:23 42.81710 -76.48810 32985 ft 515 kts 25°
2026-04-25 14:24 42.87731 -76.43868 32986 ft 515 kts 25°
2026-04-25 14:24 42.93864 -76.38822 32997 ft 514 kts 25°
2026-04-25 14:25 42.99984 -76.33774 33007 ft 513 kts 25°
2026-04-25 14:25 43.06114 -76.28708 33009 ft 514 kts 25°
2026-04-25 14:26 43.12196 -76.23718 33015 ft 510 kts 21°
2026-04-25 14:26 43.18694 -76.20355 33017 ft 496 kts
2026-04-25 14:27 43.25445 -76.19073 33012 ft 488 kts 359°
2026-04-25 14:27 43.32202 -76.18024 32991 ft 489 kts 360°
2026-04-25 14:28 43.38902 -76.16983 32990 ft 489 kts 360°
2026-04-25 14:28 43.45658 -76.15946 32994 ft 489 kts 360°
2026-04-25 14:29 43.52421 -76.14908 33003 ft 489 kts 360°
2026-04-25 14:29 43.59197 -76.13868 33003 ft 489 kts 360°
2026-04-25 14:30 43.65965 -76.12824 33002 ft 489 kts 360°
2026-04-25 14:30 43.76076 -76.11263 33016 ft 489 kts 360°
2026-04-25 14:31 43.82847 -76.10213 33026 ft 489 kts 360°
2026-04-25 14:31 43.89607 -76.09164 33030 ft 489 kts 360°
2026-04-25 14:32 43.96373 -76.08111 33029 ft 489 kts 360°
2026-04-25 14:32 44.03104 -76.07062 33031 ft 489 kts 360°
2026-04-25 14:33 44.09871 -76.06004 33028 ft 489 kts 360°
2026-04-25 14:33 44.16625 -76.04945 33028 ft 489 kts 360°
2026-04-25 14:34 44.23385 -76.03884 33035 ft 489 kts 360°
2026-04-25 14:34 44.30123 -76.02823 33042 ft 489 kts 360°
2026-04-25 14:35 44.36863 -76.01804 33055 ft 488 kts 358°
2026-04-25 14:35 44.43618 -76.01096 33060 ft 487 kts 357°
2026-04-25 14:36 44.50385 -76.00389 33061 ft 487 kts 358°
2026-04-25 14:36 44.57098 -75.99650 33112 ft 490 kts 358°
2026-04-25 14:37 44.60540 -75.99266 33595 ft 489 kts 358°
2026-04-25 14:37 44.63885 -75.98889 34124 ft 487 kts 358°
2026-04-25 14:37 44.67256 -75.98198 34576 ft 492 kts
2026-04-25 14:37 44.70492 -75.96974 35050 ft 495 kts 12°
2026-04-25 14:38 44.73709 -75.95204 35519 ft 498 kts 19°
2026-04-25 14:38 44.76785 -75.92937 36025 ft 499 kts 25°
2026-04-25 14:38 44.79771 -75.90491 36539 ft 495 kts 25°
2026-04-25 14:38 44.82758 -75.88092 36971 ft 493 kts 25°
2026-04-25 14:39 44.85748 -75.85695 37090 ft 493 kts 25°
2026-04-25 14:39 44.88580 -75.83409 37088 ft 487 kts 25°
2026-04-25 14:39 44.94557 -75.78564 37094 ft 487 kts 25°
2026-04-25 14:40 45.00156 -75.73041 37102 ft 495 kts 36°
2026-04-25 14:40 45.05096 -75.66202 37087 ft 497 kts 41°
2026-04-25 14:41 45.09920 -75.59200 37093 ft 497 kts 41°
2026-04-25 14:41 45.14747 -75.52168 37108 ft 498 kts 41°
2026-04-25 14:42 45.17927 -75.47505 37111 ft 496 kts 41°
2026-04-25 14:42 45.24298 -75.38131 37109 ft 496 kts 41°
2026-04-25 14:43 45.28736 -75.30558 37115 ft 500 kts 47°
2026-04-25 14:43 45.33025 -75.22779 37119 ft 499 kts 46°
2026-04-25 14:44 45.37311 -75.15007 37120 ft 499 kts 46°
2026-04-25 14:44 45.41545 -75.07291 37124 ft 498 kts 46°
2026-04-25 14:45 45.45816 -74.99519 37133 ft 497 kts 46°
2026-04-25 14:45 45.50109 -74.91794 37135 ft 496 kts 46°
2026-04-25 14:46 45.53660 -74.85382 37136 ft 496 kts 46°
2026-04-25 14:46 45.57927 -74.77645 37138 ft 495 kts 46°
2026-04-25 14:47 45.61461 -74.71219 37143 ft 495 kts 46°
2026-04-25 14:47 45.66400 -74.62212 37143 ft 493 kts 46°
2026-04-25 14:48 45.70631 -74.54475 37151 ft 494 kts 46°
2026-04-25 14:48 45.73797 -74.48672 37154 ft 494 kts 46°
2026-04-25 14:49 45.78014 -74.40923 37152 ft 493 kts 45°
2026-04-25 14:49 45.82234 -74.33149 37157 ft 493 kts 45°
2026-04-25 14:50 45.86436 -74.25378 37157 ft 493 kts 45°
2026-04-25 14:50 45.90595 -74.17665 37160 ft 493 kts 45°
2026-04-25 14:51 45.94784 -74.09878 37163 ft 493 kts 45°
2026-04-25 14:51 45.98969 -74.02073 37159 ft 493 kts 45°
2026-04-25 14:52 46.03150 -73.94256 37178 ft 492 kts 45°
2026-04-25 14:52 46.06650 -73.87694 37166 ft 492 kts 45°
2026-04-25 14:53 46.11482 -73.78604 37179 ft 492 kts 45°
2026-04-25 14:53 46.15640 -73.70758 37185 ft 492 kts 45°
2026-04-25 14:54 46.19779 -73.62925 37190 ft 492 kts 46°
2026-04-25 14:54 46.23932 -73.55045 37186 ft 492 kts 45°
2026-04-25 14:55 46.28072 -73.47167 37191 ft 492 kts 46°
2026-04-25 14:55 46.32196 -73.39295 37194 ft 492 kts 46°
2026-04-25 14:56 46.36118 -73.31422 37194 ft 497 kts 51°
2026-04-25 14:56 46.39759 -73.22984 37185 ft 497 kts 51°
2026-04-25 14:57 46.43453 -73.14516 37196 ft 497 kts 51°
2026-04-25 14:57 46.47124 -73.06050 37177 ft 496 kts 51°
2026-04-25 14:58 46.50744 -72.97662 37178 ft 494 kts 51°
2026-04-25 14:58 46.54386 -72.89197 37190 ft 494 kts 51°
2026-04-25 14:59 46.58024 -72.80719 37185 ft 493 kts 52°
2026-04-25 14:59 46.61643 -72.72257 37187 ft 492 kts 52°
2026-04-25 15:00 46.65251 -72.63799 37189 ft 491 kts 52°
2026-04-25 15:00 46.68848 -72.55339 37189 ft 490 kts 52°
2026-04-25 15:01 46.72412 -72.46929 37192 ft 490 kts 52°
2026-04-25 15:01 46.75986 -72.38470 37188 ft 489 kts 52°
2026-04-25 15:02 46.79630 -72.30105 37186 ft 484 kts 47°
2026-04-25 15:02 46.84007 -72.22752 37182 ft 478 kts 40°
2026-04-25 15:03 46.88565 -72.15677 37182 ft 477 kts 41°
2026-04-25 15:03 46.93102 -72.08597 37182 ft 477 kts 41°
2026-04-25 15:04 46.97649 -72.01501 37174 ft 477 kts 41°
2026-04-25 15:04 47.02139 -71.94483 37167 ft 478 kts 41°
2026-04-25 15:05 47.06679 -71.87362 37159 ft 478 kts 42°
2026-04-25 15:06 47.13465 -71.76687 37156 ft 478 kts 42°
2026-04-25 15:06 47.17974 -71.69568 37155 ft 478 kts 43°
2026-04-25 15:07 47.22503 -71.62401 37136 ft 478 kts 43°
2026-04-25 15:07 47.27034 -71.55210 37131 ft 479 kts 43°
2026-04-25 15:08 47.31562 -71.48005 37125 ft 479 kts 43°
2026-04-25 15:08 47.36086 -71.40784 37119 ft 479 kts 44°
2026-04-25 15:09 47.40607 -71.33549 37110 ft 479 kts 44°
2026-04-25 15:09 47.47366 -71.22697 37099 ft 478 kts 44°
2026-04-25 15:10 47.51861 -71.15456 37097 ft 478 kts 44°
2026-04-25 15:11 47.58599 -71.04563 37117 ft 477 kts 44°
2026-04-25 15:11 47.63079 -70.97298 37130 ft 477 kts 44°
2026-04-25 15:12 47.69760 -70.86425 37144 ft 477 kts 45°
2026-04-25 15:12 47.72714 -70.81601 37154 ft 477 kts 45°
2026-04-25 15:13 47.80911 -70.68175 37165 ft 477 kts 45°
2026-04-25 15:14 47.85368 -70.60846 37170 ft 477 kts 45°
2026-04-25 15:14 47.89824 -70.53499 37172 ft 478 kts 45°
2026-04-25 15:15 47.93524 -70.47381 37172 ft 477 kts 45°
2026-04-25 15:15 47.98721 -70.38765 37176 ft 478 kts 45°
2026-04-25 15:16 48.03135 -70.31427 37180 ft 477 kts 45°
2026-04-25 15:16 48.09784 -70.20331 37176 ft 477 kts 45°
2026-04-25 15:17 48.16384 -70.09271 37171 ft 478 kts 45°
2026-04-25 15:18 48.20798 -70.01848 37172 ft 478 kts 46°
2026-04-25 15:18 48.27430 -69.90658 37175 ft 477 kts 46°
2026-04-25 15:19 48.30352 -69.85713 37165 ft 477 kts 46°
2026-04-25 15:19 48.36228 -69.75741 37174 ft 477 kts 46°
2026-04-25 15:20 48.40594 -69.68302 37167 ft 477 kts 46°
2026-04-25 15:20 48.44974 -69.60823 37174 ft 476 kts 46°
2026-04-25 15:21 48.49359 -69.53317 37180 ft 477 kts 46°
2026-04-25 15:21 48.53725 -69.45824 37186 ft 476 kts 46°
2026-04-25 15:22 48.58110 -69.38329 37186 ft 476 kts 46°
2026-04-25 15:22 48.62574 -69.30921 37161 ft 476 kts 45°
2026-04-25 15:23 48.67039 -69.23538 37164 ft 476 kts 45°
2026-04-25 15:23 48.71509 -69.16118 37173 ft 476 kts 45°
2026-04-25 15:24 48.75958 -69.08709 37174 ft 475 kts 46°
2026-04-25 15:24 48.78930 -69.03747 37171 ft 475 kts 46°
2026-04-25 15:25 48.84835 -68.93857 37166 ft 475 kts 46°
2026-04-25 15:25 48.89271 -68.86404 37164 ft 475 kts 46°
2026-04-25 15:26 48.93699 -68.78939 37157 ft 475 kts 46°
2026-04-25 15:26 48.98102 -68.71489 37164 ft 474 kts 46°
2026-04-25 15:27 49.02509 -68.64004 37157 ft 474 kts 46°
2026-04-25 15:28 49.09105 -68.52766 37157 ft 474 kts 46°
2026-04-25 15:28 49.13501 -68.45248 37157 ft 473 kts 46°
2026-04-25 15:29 49.17140 -68.39008 37156 ft 474 kts 46°
2026-04-25 15:29 49.22205 -68.30299 37161 ft 473 kts 46°
2026-04-25 15:30 49.26577 -68.22758 37163 ft 473 kts 46°
2026-04-25 15:30 49.30223 -68.16452 37149 ft 473 kts 46°
2026-04-25 15:31 49.34563 -68.08925 37152 ft 473 kts 46°
2026-04-25 15:31 49.38887 -68.01406 37149 ft 473 kts 46°
2026-04-25 15:32 49.43233 -67.93826 37147 ft 474 kts 47°
2026-04-25 15:32 49.47575 -67.86231 37140 ft 473 kts 47°
2026-04-25 15:33 49.54071 -67.74827 37143 ft 474 kts 47°
2026-04-25 15:33 49.58410 -67.67180 37144 ft 474 kts 47°
2026-04-25 15:34 49.62736 -67.59536 37140 ft 474 kts 47°
2026-04-25 15:34 49.66335 -67.53156 37141 ft 474 kts 47°
2026-04-25 15:35 49.73514 -67.40389 37139 ft 474 kts 47°
2026-04-25 15:36 49.79981 -67.28832 37139 ft 474 kts 47°
2026-04-25 15:36 49.84287 -67.21111 37140 ft 473 kts 47°
2026-04-25 15:37 49.88587 -67.13375 37135 ft 473 kts 47°
2026-04-25 15:37 49.92850 -67.05683 37135 ft 473 kts 47°
2026-04-25 15:38 49.96963 -66.98240 37131 ft 473 kts 48°
2026-04-25 15:38 50.01250 -66.90461 37131 ft 473 kts 48°
2026-04-25 15:39 50.05525 -66.82678 37124 ft 473 kts 48°
2026-04-25 15:39 50.09498 -66.75424 37131 ft 473 kts 48°
2026-04-25 15:40 50.12994 -66.69026 37119 ft 472 kts 48°
2026-04-25 15:40 50.17970 -66.59892 37118 ft 472 kts 48°
2026-04-25 15:41 50.21538 -66.53321 37119 ft 472 kts 48°
2026-04-25 15:41 50.25776 -66.45495 37119 ft 472 kts 48°
2026-04-25 15:42 50.30007 -66.37660 37119 ft 471 kts 49°
2026-04-25 15:42 50.34193 -66.29883 37118 ft 470 kts 49°
2026-04-25 15:43 50.38400 -66.22043 37116 ft 469 kts 49°
2026-04-25 15:43 50.42541 -66.14303 37113 ft 468 kts 49°
2026-04-25 15:44 50.46723 -66.06464 37110 ft 468 kts 49°
2026-04-25 15:44 50.50895 -65.98621 37111 ft 468 kts 49°
2026-04-25 15:45 50.55060 -65.90766 37111 ft 467 kts 49°
2026-04-25 15:45 50.58532 -65.84200 37115 ft 467 kts 49°
2026-04-25 15:46 50.63351 -65.75057 37112 ft 466 kts 49°
2026-04-25 15:46 50.67503 -65.67155 37115 ft 467 kts 49°
2026-04-25 15:47 50.71565 -65.59403 37114 ft 467 kts 49°
2026-04-25 15:47 50.75715 -65.51455 37124 ft 466 kts 49°
2026-04-25 15:48 50.79774 -65.43660 37119 ft 467 kts 49°
2026-04-25 15:48 50.83893 -65.35724 37129 ft 466 kts 49°
2026-04-25 15:49 50.87996 -65.27795 37129 ft 466 kts 49°
2026-04-25 15:49 50.92105 -65.19831 37136 ft 466 kts 49°
2026-04-25 15:50 50.96206 -65.11857 37133 ft 466 kts 49°
2026-04-25 15:50 51.00295 -65.03883 37142 ft 466 kts 49°
2026-04-25 15:51 51.03691 -64.97241 37144 ft 466 kts 49°
2026-04-25 15:51 51.08464 -64.87875 37143 ft 467 kts 50°
2026-04-25 15:52 51.12542 -64.79847 37145 ft 466 kts 50°
2026-04-25 15:52 51.16604 -64.71826 37141 ft 464 kts 50°
2026-04-25 15:53 51.20604 -64.63903 37142 ft 465 kts 50°
2026-04-25 15:53 51.24617 -64.55930 37142 ft 462 kts 50°
2026-04-25 15:54 51.28650 -64.47891 37150 ft 464 kts 50°
2026-04-25 15:54 51.32653 -64.39889 37152 ft 465 kts 50°
2026-04-25 15:55 51.36664 -64.31842 37159 ft 463 kts 50°
2026-04-25 15:55 51.40684 -64.23755 37164 ft 464 kts 50°
2026-04-25 15:56 51.44675 -64.15701 37154 ft 463 kts 50°
2026-04-25 15:56 51.48669 -64.07615 37174 ft 463 kts 50°
2026-04-25 15:57 51.52659 -63.99512 37185 ft 462 kts 50°
2026-04-25 15:57 51.56641 -63.91400 37185 ft 462 kts 51°
2026-04-25 15:58 51.60607 -63.83294 37232 ft 464 kts 51°
2026-04-25 15:58 51.62606 -63.79201 37549 ft 464 kts 51°
2026-04-25 15:58 51.64604 -63.75101 37854 ft 465 kts 51°
2026-04-25 15:59 51.66546 -63.71110 38126 ft 467 kts 51°
2026-04-25 15:59 51.68616 -63.66850 38164 ft 470 kts 51°
2026-04-25 15:59 51.72560 -63.58708 38166 ft 463 kts 51°
2026-04-25 16:00 51.74549 -63.54595 38167 ft 465 kts 51°
2026-04-25 16:00 51.80507 -63.42231 38164 ft 465 kts 51°
2026-04-25 16:01 51.84473 -63.33970 38164 ft 465 kts 51°
2026-04-25 16:01 51.88433 -63.25693 38161 ft 464 kts 51°
2026-04-25 16:02 51.92383 -63.17411 38165 ft 464 kts 51°
2026-04-25 16:02 51.96325 -63.09118 38166 ft 464 kts 51°
2026-04-25 16:03 52.00253 -63.00829 38164 ft 463 kts 51°
2026-04-25 16:03 52.04141 -62.92595 38167 ft 462 kts 51°
2026-04-25 16:04 52.08041 -62.84312 38164 ft 461 kts 51°
2026-04-25 16:04 52.11787 -62.76328 38168 ft 460 kts 51°
2026-04-25 16:05 52.15663 -62.68045 38163 ft 460 kts 52°
2026-04-25 16:06 52.21438 -62.55650 38166 ft 459 kts 52°
2026-04-25 16:06 52.25287 -62.47355 38164 ft 458 kts 52°
2026-04-25 16:07 52.29132 -62.39043 38165 ft 459 kts 52°
2026-04-25 16:07 52.32941 -62.30780 38166 ft 458 kts 52°
2026-04-25 16:08 52.36753 -62.22485 38164 ft 458 kts 52°
2026-04-25 16:08 52.40549 -62.14199 38166 ft 458 kts 52°
2026-04-25 16:09 52.44375 -62.05819 38159 ft 459 kts 52°
2026-04-25 16:09 52.48192 -61.97429 38164 ft 459 kts 52°
2026-04-25 16:10 52.52010 -61.89013 38161 ft 460 kts 52°
2026-04-25 16:10 52.55825 -61.80574 38157 ft 460 kts 52°
2026-04-25 16:11 52.59634 -61.72121 38155 ft 460 kts 52°
2026-04-25 16:11 52.63433 -61.63661 38159 ft 460 kts 52°
2026-04-25 16:12 52.67233 -61.55171 38164 ft 461 kts 53°
2026-04-25 16:12 52.70973 -61.46787 38163 ft 461 kts 53°
2026-04-25 16:13 52.74773 -61.38242 38162 ft 461 kts 53°
2026-04-25 16:13 52.78536 -61.29749 38163 ft 461 kts 53°
2026-04-25 16:14 52.82317 -61.21188 38167 ft 461 kts 53°
2026-04-25 16:14 52.86089 -61.12618 38165 ft 460 kts 53°
2026-04-25 16:15 52.89850 -61.04045 38165 ft 460 kts 53°
2026-04-25 16:15 52.93603 -60.95461 38166 ft 460 kts 53°
2026-04-25 16:16 52.96721 -60.88308 38161 ft 459 kts 53°
2026-04-25 16:16 53.00465 -60.79691 38164 ft 460 kts 54°
2026-04-25 16:17 53.04202 -60.71061 38164 ft 460 kts 54°
2026-04-25 16:17 53.07932 -60.62415 38161 ft 460 kts 54°
2026-04-25 16:18 53.11660 -60.53748 38161 ft 461 kts 54°
2026-04-25 16:18 53.15357 -60.45123 38158 ft 460 kts 54°
2026-04-25 16:19 53.19058 -60.36459 38157 ft 461 kts 54°
2026-04-25 16:19 53.22766 -60.27748 38158 ft 461 kts 54°
2026-04-25 16:20 53.28332 -60.14617 38157 ft 462 kts 54°
2026-04-25 16:21 53.33853 -60.01522 38155 ft 463 kts 55°
2026-04-25 16:21 53.37549 -59.92718 38149 ft 461 kts 55°
2026-04-25 16:22 53.41228 -59.83926 38147 ft 461 kts 55°
2026-04-25 16:22 53.44902 -59.75114 38143 ft 460 kts 55°
2026-04-25 16:23 53.48561 -59.66306 38139 ft 460 kts 55°
2026-04-25 16:23 53.52220 -59.57470 38139 ft 460 kts 55°
2026-04-25 16:24 53.55864 -59.48637 38136 ft 460 kts 55°
2026-04-25 16:24 53.59474 -59.39856 38138 ft 460 kts 55°
2026-04-25 16:25 53.60732 -59.36788 38134 ft 460 kts 55°
2026-04-25 16:25 53.64385 -59.27860 38131 ft 459 kts 55°
2026-04-25 16:26 53.67937 -59.19150 38126 ft 461 kts 55°
2026-04-25 16:26 53.71511 -59.10353 38128 ft 460 kts 56°
2026-04-25 16:27 53.75121 -59.01438 38126 ft 461 kts 56°
2026-04-25 16:27 53.78745 -58.92455 38123 ft 461 kts 56°
2026-04-25 16:28 53.82354 -58.83478 38117 ft 462 kts 56°
2026-04-25 16:28 53.85966 -58.74458 38116 ft 462 kts 56°
2026-04-25 16:29 53.89570 -58.65431 38122 ft 463 kts 56°
2026-04-25 16:29 53.93174 -58.56370 38114 ft 463 kts 56°
2026-04-25 16:30 53.96771 -58.47291 38109 ft 463 kts 56°
2026-04-25 16:30 54.00363 -58.38193 38107 ft 464 kts 56°
2026-04-25 16:31 54.03906 -58.29188 38105 ft 465 kts 57°
2026-04-25 16:31 54.07495 -58.20032 38107 ft 465 kts 57°
2026-04-25 16:32 54.11052 -58.10924 38103 ft 465 kts 57°
2026-04-25 16:32 54.14636 -58.01711 38102 ft 466 kts 57°
2026-04-25 16:33 54.18163 -57.92615 38099 ft 465 kts 57°
2026-04-25 16:33 54.21736 -57.83365 38095 ft 466 kts 57°
2026-04-25 16:34 54.25298 -57.74109 38084 ft 467 kts 57°
2026-04-25 16:34 54.28847 -57.64854 38082 ft 466 kts 57°
2026-04-25 16:35 54.32407 -57.55547 38073 ft 466 kts 57°
2026-04-25 16:35 54.35885 -57.46434 38063 ft 468 kts 57°
2026-04-25 16:36 54.39427 -57.37118 38048 ft 466 kts 57°
2026-04-25 16:36 54.42974 -57.27756 38043 ft 467 kts 57°
2026-04-25 16:37 54.46507 -57.18393 38038 ft 467 kts 58°
2026-04-25 16:37 54.50014 -57.08962 38032 ft 467 kts 62°
2026-04-25 16:38 54.52694 -56.98785 38026 ft 468 kts 70°
2026-04-25 16:38 54.54446 -56.88096 38026 ft 467 kts 80°
2026-04-25 16:39 54.55461 -56.77206 38016 ft 468 kts 80°
2026-04-25 16:39 54.56531 -56.66202 38007 ft 467 kts 80°
2026-04-25 16:40 54.57576 -56.55170 37999 ft 467 kts 80°
2026-04-25 16:40 54.58599 -56.44106 37999 ft 467 kts 81°
2026-04-25 16:41 54.59607 -56.33043 37993 ft 467 kts 81°
2026-04-25 16:41 54.61103 -56.16417 37983 ft 468 kts 81°
2026-04-25 16:42 54.62086 -56.05336 37973 ft 468 kts 81°
2026-04-25 16:42 54.63062 -55.94225 37970 ft 468 kts 81°
2026-04-25 16:43 54.64028 -55.83108 37962 ft 468 kts 81°
2026-04-25 16:43 54.64958 -55.72285 37956 ft 468 kts 81°
2026-04-25 16:44 54.65903 -55.61165 37951 ft 468 kts 81°
2026-04-25 16:44 54.66837 -55.50050 37948 ft 468 kts 81°
2026-04-25 16:45 54.67747 -55.39100 37943 ft 468 kts 82°
2026-04-25 16:45 54.68660 -55.27980 37936 ft 468 kts 82°
2026-04-25 16:46 54.69564 -55.16846 37934 ft 467 kts 82°
2026-04-25 16:46 54.70164 -55.09383 37924 ft 468 kts 82°
2026-04-25 16:47 54.71343 -54.94540 37919 ft 468 kts 82°
2026-04-25 16:47 54.72217 -54.83379 37912 ft 467 kts 82°
2026-04-25 16:48 54.73069 -54.72373 37908 ft 469 kts 82°
2026-04-25 16:48 54.73912 -54.61346 37903 ft 467 kts 82°
2026-04-25 16:49 54.74755 -54.50183 37909 ft 468 kts 82°
2026-04-25 16:49 54.75587 -54.39027 37896 ft 466 kts 82°
2026-04-25 16:50 54.76414 -54.27793 37889 ft 474 kts 83°
2026-04-25 16:50 54.77233 -54.16508 37893 ft 469 kts 83°
2026-04-25 16:51 54.78034 -54.05338 37881 ft 467 kts 83°
2026-04-25 16:51 54.78559 -53.97929 37877 ft 468 kts 83°
2026-04-25 16:52 54.79606 -53.82972 37869 ft 467 kts 83°
2026-04-25 16:52 54.80376 -53.71778 37868 ft 472 kts 83°
2026-04-25 16:53 54.81509 -53.55037 37863 ft 468 kts 83°
2026-04-25 16:54 54.82251 -53.43884 37853 ft 465 kts 83°
2026-04-25 16:54 54.82983 -53.32708 37844 ft 467 kts 83°
2026-04-25 16:55 54.83709 -53.21482 37838 ft 468 kts 83°
2026-04-25 16:55 54.84420 -53.10301 37846 ft 469 kts 84°
2026-04-25 16:56 54.85126 -52.99045 37852 ft 469 kts 84°
2026-04-25 16:56 54.85821 -52.87808 37839 ft 466 kts 84°
2026-04-25 16:57 54.86502 -52.76614 37834 ft 465 kts 84°
2026-04-25 16:57 54.87171 -52.65445 37823 ft 465 kts 84°
2026-04-25 16:58 54.87830 -52.54261 37825 ft 467 kts 84°
2026-04-25 16:58 54.88483 -52.43007 37828 ft 468 kts 84°
2026-04-25 16:59 54.89128 -52.31689 37819 ft 470 kts 84°
2026-04-25 16:59 54.89761 -52.20420 37809 ft 467 kts 84°
2026-04-25 17:00 54.90277 -52.11078 37811 ft 471 kts 85°
2026-04-25 17:00 54.90898 -51.99661 37806 ft 476 kts 85°
2026-04-25 17:01 54.91508 -51.88255 37806 ft 472 kts 85°
2026-04-25 17:01 54.92102 -51.76949 37800 ft 467 kts 85°
2026-04-25 17:02 54.92680 -51.65736 37793 ft 464 kts 85°
2026-04-25 17:02 54.93248 -51.54490 37791 ft 470 kts 85°
2026-04-25 17:03 54.93810 -51.43182 37780 ft 467 kts 85°
2026-04-25 17:03 54.94358 -51.31962 37785 ft 465 kts 85°
2026-04-25 17:04 54.94891 -51.20804 37787 ft 461 kts 85°
2026-04-25 17:04 54.95415 -51.09627 37776 ft 468 kts 85°
2026-04-25 17:05 54.95935 -50.98307 37776 ft 469 kts 85°
2026-04-25 17:05 54.96689 -50.81493 37768 ft 465 kts 86°
2026-04-25 17:06 54.97179 -50.70250 37767 ft 468 kts 86°
2026-04-25 17:06 54.97660 -50.58968 37762 ft 467 kts 86°
2026-04-25 17:07 54.98132 -50.47664 37762 ft 470 kts 86°
2026-04-25 17:07 54.98596 -50.36285 37757 ft 471 kts 86°
2026-04-25 17:08 54.99051 -50.24926 37755 ft 468 kts 86°
2026-04-25 17:08 54.99499 -50.13612 37751 ft 467 kts 86°
2026-04-25 17:09 54.99940 -50.02281 37744 ft 471 kts 86°
2026-04-25 17:09 55.01205 -49.91118 37740 ft 468 kts 76°
2026-04-25 17:10 55.02802 -49.80148 37750 ft 467 kts 76°
2026-04-25 17:10 55.04388 -49.69116 37734 ft 468 kts 76°
2026-04-25 17:11 55.05949 -49.58111 37743 ft 467 kts 77°
2026-04-25 17:11 55.07500 -49.47094 37737 ft 468 kts 77°
2026-04-25 17:12 55.09028 -49.36131 37750 ft 467 kts 77°
2026-04-25 17:12 55.10553 -49.25072 37744 ft 471 kts 77°
2026-04-25 17:13 55.11830 -49.15742 37723 ft 470 kts 77°
2026-04-25 17:13 55.13583 -49.02843 37729 ft 469 kts 77°
2026-04-25 17:14 55.15080 -48.91732 37717 ft 470 kts 77°
2026-04-25 17:14 55.16571 -48.80585 37728 ft 471 kts 77°
2026-04-25 17:15 55.18054 -48.69416 37737 ft 470 kts 77°
2026-04-25 17:15 55.19520 -48.58291 37722 ft 470 kts 77°
2026-04-25 17:16 55.20979 -48.47129 37728 ft 470 kts 77°
2026-04-25 17:16 55.22428 -48.35962 37729 ft 473 kts 77°
2026-04-25 17:17 55.23878 -48.24698 37724 ft 473 kts 77°
2026-04-25 17:17 55.25302 -48.13551 37723 ft 471 kts 77°
2026-04-25 17:18 55.26717 -48.02379 37725 ft 468 kts 78°
2026-04-25 17:18 55.28119 -47.91226 37722 ft 470 kts 78°
2026-04-25 17:19 55.29518 -47.80007 37720 ft 471 kts 78°
2026-04-25 17:19 55.30900 -47.68833 37728 ft 467 kts 78°
2026-04-25 17:20 55.32276 -47.57620 37722 ft 469 kts 78°
2026-04-25 17:20 55.33634 -47.46461 37723 ft 467 kts 78°
2026-04-25 17:21 55.34987 -47.35251 37722 ft 470 kts 78°
2026-04-25 17:21 55.36329 -47.24037 37721 ft 468 kts 78°
2026-04-25 17:22 55.37434 -47.14733 37721 ft 468 kts 78°
2026-04-25 17:22 55.38976 -47.01647 37719 ft 468 kts 78°
2026-04-25 17:23 55.40286 -46.90422 37723 ft 468 kts 78°
2026-04-25 17:23 55.41581 -46.79240 37722 ft 471 kts 78°
2026-04-25 17:24 55.42877 -46.67944 37723 ft 468 kts 79°
2026-04-25 17:24 55.44155 -46.56714 37718 ft 469 kts 79°
2026-04-25 17:25 55.45434 -46.45368 37720 ft 472 kts 79°
2026-04-25 17:25 55.46697 -46.34064 37722 ft 469 kts 79°
2026-04-25 17:26 55.47943 -46.22820 37722 ft 467 kts 79°
2026-04-25 17:26 55.49183 -46.11520 37721 ft 470 kts 79°
2026-04-25 17:27 55.50410 -46.00244 37723 ft 471 kts 79°
2026-04-25 17:27 55.51230 -45.92656 37722 ft 469 kts 79°
2026-04-25 17:28 55.52839 -45.77617 37723 ft 470 kts 79°
2026-04-25 17:28 55.54039 -45.66275 37717 ft 470 kts 79°
2026-04-25 17:29 55.55231 -45.54905 37721 ft 470 kts 80°
2026-04-25 17:29 55.56411 -45.43539 37729 ft 472 kts 80°
2026-04-25 17:30 55.57585 -45.32127 37722 ft 471 kts 80°
2026-04-25 17:30 55.58753 -45.20670 37729 ft 473 kts 80°
2026-04-25 17:31 55.59905 -45.09251 37725 ft 471 kts 80°
2026-04-25 17:31 55.61048 -44.97812 37730 ft 472 kts 80°
2026-04-25 17:32 55.62177 -44.86391 37729 ft 470 kts 81°
2026-04-25 17:32 55.63291 -44.75020 37732 ft 474 kts 81°
2026-04-25 17:33 55.64403 -44.63543 37731 ft 473 kts 81°
2026-04-25 17:33 55.65507 -44.52045 37735 ft 474 kts 81°
2026-04-25 17:34 55.66599 -44.40547 37735 ft 473 kts 81°
2026-04-25 17:34 55.67680 -44.29047 37734 ft 473 kts 81°
2026-04-25 17:35 55.68750 -44.17542 37738 ft 474 kts 81°
2026-04-25 17:35 55.69811 -44.06009 37736 ft 473 kts 81°
2026-04-25 17:36 55.70859 -43.94494 37737 ft 474 kts 82°
2026-04-25 17:36 55.71900 -43.82930 37735 ft 475 kts 82°
2026-04-25 17:37 55.72931 -43.71356 37743 ft 475 kts 82°
2026-04-25 17:37 55.73951 -43.59765 37744 ft 476 kts 82°
2026-04-25 17:38 55.74628 -43.52004 37748 ft 475 kts 82°
2026-04-25 17:38 55.75959 -43.36573 37745 ft 475 kts 82°
2026-04-25 17:39 55.76949 -43.24957 37738 ft 478 kts 83°
2026-04-25 17:39 55.77941 -43.13149 37749 ft 485 kts 83°
2026-04-25 17:40 55.78919 -43.01381 37752 ft 485 kts 83°
2026-04-25 17:40 55.79892 -42.89536 37749 ft 484 kts 83°
2026-04-25 17:41 55.80853 -42.77689 37748 ft 484 kts 83°
2026-04-25 17:41 55.81805 -42.65795 37750 ft 485 kts 83°
2026-04-25 17:42 55.82743 -42.53946 37767 ft 484 kts 83°
2026-04-25 17:42 55.83673 -42.42036 37763 ft 488 kts 84°
2026-04-25 17:43 55.84596 -42.30064 37754 ft 487 kts 84°
2026-04-25 17:43 55.85503 -42.18147 37758 ft 487 kts 84°
2026-04-25 17:44 55.86399 -42.06214 37767 ft 487 kts 84°
2026-04-25 17:44 55.87284 -41.94261 37769 ft 487 kts 84°
2026-04-25 17:45 55.87871 -41.86250 37772 ft 487 kts 84°
2026-04-25 17:45 55.89023 -41.70303 37776 ft 488 kts 84°
2026-04-25 17:46 55.89732 -41.60338 37776 ft 488 kts 84°
2026-04-25 17:46 55.90578 -41.48306 37779 ft 489 kts 84°
2026-04-25 17:47 55.91409 -41.36304 37767 ft 488 kts 84°
2026-04-25 17:47 55.92230 -41.24271 37774 ft 489 kts 85°
2026-04-25 17:48 55.93441 -41.06197 37782 ft 490 kts 85°
2026-04-25 17:49 55.94234 -40.94128 37783 ft 490 kts 85°
2026-04-25 17:49 55.95016 -40.82053 37785 ft 490 kts 85°
2026-04-25 17:50 55.95786 -40.69954 37779 ft 490 kts 85°
2026-04-25 17:50 55.96545 -40.57859 37782 ft 491 kts 85°
2026-04-25 17:51 55.97293 -40.45734 37788 ft 491 kts 85°
2026-04-25 17:51 55.98031 -40.33680 37791 ft 491 kts 85°
2026-04-25 17:52 55.98717 -40.22366 37795 ft 492 kts 85°
2026-04-25 17:52 55.99444 -40.10200 37797 ft 492 kts 85°
2026-04-25 17:53 56.00109 -39.98017 37799 ft 492 kts 87°
2026-04-25 17:53 56.00511 -39.85812 37798 ft 492 kts 88°
2026-04-25 17:54 56.00923 -39.75431 37799 ft 493 kts 87°
2026-04-25 17:54 56.01414 -39.63205 37798 ft 493 kts 88°
2026-04-25 17:55 56.01883 -39.50961 37800 ft 493 kts 88°
2026-04-25 17:55 56.02335 -39.38728 37803 ft 494 kts 88°
2026-04-25 17:56 56.02767 -39.26471 37807 ft 494 kts 88°
2026-04-25 17:56 56.03185 -39.14207 37809 ft 494 kts 88°
2026-04-25 17:57 56.03591 -39.01922 37809 ft 495 kts 88°
2026-04-25 17:57 56.03984 -38.89643 37809 ft 494 kts 88°
2026-04-25 17:58 56.04366 -38.77356 37805 ft 495 kts 88°
2026-04-25 17:58 56.04735 -38.65072 37814 ft 495 kts 89°
2026-04-25 17:59 56.05093 -38.52772 37814 ft 495 kts 89°
2026-04-25 17:59 56.05436 -38.40546 37818 ft 495 kts 89°
2026-04-25 18:00 56.05769 -38.28230 37818 ft 495 kts 89°
2026-04-25 18:00 56.06090 -38.15912 37820 ft 496 kts 89°
2026-04-25 18:01 56.06399 -38.03592 37821 ft 496 kts 89°
2026-04-25 18:01 56.06696 -37.91247 37819 ft 496 kts 89°
2026-04-25 18:02 56.06980 -37.78915 37820 ft 496 kts 89°
2026-04-25 18:02 56.07253 -37.66570 37824 ft 497 kts 89°
2026-04-25 18:03 56.07513 -37.54204 37825 ft 497 kts 90°
2026-04-25 18:03 56.07761 -37.41847 37828 ft 497 kts 90°
2026-04-25 18:04 56.07997 -37.29479 37831 ft 497 kts 90°
2026-04-25 18:04 56.08220 -37.17103 37831 ft 497 kts 90°
2026-04-25 18:05 56.08431 -37.04729 37830 ft 497 kts 90°
2026-04-25 18:05 56.08629 -36.92422 37830 ft 498 kts 90°
2026-04-25 18:06 56.08815 -36.80028 37839 ft 498 kts 90°
2026-04-25 18:06 56.08989 -36.67628 37839 ft 498 kts 90°
2026-04-25 18:07 56.09151 -36.55218 37845 ft 499 kts 90°
2026-04-25 18:07 56.09301 -36.42798 37839 ft 499 kts 90°
2026-04-25 18:08 56.09438 -36.30380 37845 ft 498 kts 90°
2026-04-25 18:08 56.09563 -36.17956 37843 ft 499 kts 91°
2026-04-25 18:09 56.09675 -36.05530 37846 ft 499 kts 91°
2026-04-25 18:09 56.09774 -35.93102 37846 ft 499 kts 91°
2026-04-25 18:10 56.09856 -35.81480 37850 ft 499 kts 91°
2026-04-25 18:10 56.09932 -35.69051 37849 ft 500 kts 91°
2026-04-25 18:11 56.09995 -35.56682 37852 ft 499 kts 91°
2026-04-25 18:11 56.10046 -35.44244 37851 ft 500 kts 91°
2026-04-25 18:12 56.10084 -35.31794 37854 ft 500 kts 91°
2026-04-25 18:12 56.10109 -35.19328 37851 ft 501 kts 91°
2026-04-25 18:13 56.10123 -35.06852 37853 ft 501 kts 91°
2026-04-25 18:13 56.10123 -34.94372 37857 ft 501 kts 91°
2026-04-25 18:14 56.10101 -34.75640 37861 ft 501 kts 92°
2026-04-25 18:14 56.10070 -34.63167 37861 ft 501 kts 92°
2026-04-25 18:15 56.10026 -34.50686 37861 ft 501 kts 92°
2026-04-25 18:15 56.09970 -34.38183 37862 ft 501 kts 92°
2026-04-25 18:16 56.09901 -34.25687 37869 ft 502 kts 92°
2026-04-25 18:17 56.09774 -34.06936 37869 ft 502 kts 92°
2026-04-25 18:17 56.09674 -33.94447 37870 ft 502 kts 92°
2026-04-25 18:18 56.09561 -33.81945 37873 ft 502 kts 92°
2026-04-25 18:18 56.09436 -33.69532 37866 ft 502 kts 92°
2026-04-25 18:19 56.09298 -33.57023 37877 ft 502 kts 92°
2026-04-25 18:19 56.09148 -33.44522 37878 ft 502 kts 92°
2026-04-25 18:20 56.08984 -33.32020 37879 ft 502 kts 93°
2026-04-25 18:20 56.08808 -33.19504 37891 ft 502 kts 93°
2026-04-25 18:21 56.08619 -33.07002 37890 ft 503 kts 93°
2026-04-25 18:21 56.08452 -32.96610 37871 ft 503 kts 93°
2026-04-25 18:22 56.08350 -32.90473 37881 ft 502 kts 93°
2026-04-25 18:22 56.08132 -32.77973 37891 ft 503 kts 93°
2026-04-25 18:23 56.07902 -32.65535 37892 ft 503 kts 93°
2026-04-25 18:23 56.07659 -32.53024 37891 ft 503 kts 93°
2026-04-25 18:24 56.07403 -32.40516 37883 ft 503 kts 94°
2026-04-25 18:24 56.07133 -32.27988 37885 ft 503 kts 94°
2026-04-25 18:25 56.06851 -32.15463 37886 ft 504 kts 94°
2026-04-25 18:25 56.06556 -32.02935 37886 ft 504 kts 94°
2026-04-25 18:26 56.06249 -31.90397 37889 ft 504 kts 94°
2026-04-25 18:26 56.05929 -31.77879 37892 ft 504 kts 94°
2026-04-25 18:27 56.05596 -31.65357 37895 ft 504 kts 94°
2026-04-25 18:27 56.05249 -31.52807 37899 ft 504 kts 94°
2026-04-25 18:28 56.04893 -31.40355 37896 ft 504 kts 94°
2026-04-25 18:28 56.04522 -31.27829 37894 ft 504 kts 94°
2026-04-25 18:29 56.03941 -31.09025 37898 ft 505 kts 94°
2026-04-25 18:30 56.03122 -30.83957 37899 ft 504 kts 95°
2026-04-25 18:30 56.02693 -30.71445 37899 ft 505 kts 95°
2026-04-25 18:31 56.02251 -30.58899 37906 ft 505 kts 95°
2026-04-25 18:31 56.01797 -30.46360 37905 ft 505 kts 95°
2026-04-25 18:32 56.01335 -30.33858 37902 ft 505 kts 95°
2026-04-25 18:32 56.00870 -30.21406 37907 ft 505 kts 95°
2026-04-25 18:33 56.00390 -30.08880 37906 ft 505 kts 95°
2026-04-25 18:33 55.99929 -29.96369 37906 ft 505 kts 91°
2026-04-25 18:34 56.00418 -29.83836 37907 ft 506 kts 85°
2026-04-25 18:34 56.01065 -29.71324 37909 ft 506 kts 86°
2026-04-25 18:35 56.01508 -29.60824 37905 ft 506 kts 86°
2026-04-25 18:35 56.01985 -29.48294 37913 ft 506 kts 87°
2026-04-25 18:36 56.02442 -29.35730 37910 ft 506 kts 87°
2026-04-25 18:36 56.02880 -29.23193 37913 ft 506 kts 87°
2026-04-25 18:37 56.03305 -29.10626 37909 ft 506 kts 87°
2026-04-25 18:37 56.03716 -28.98066 37919 ft 506 kts 87°
2026-04-25 18:38 56.04112 -28.85581 37911 ft 506 kts 87°
2026-04-25 18:38 56.04498 -28.72995 37915 ft 506 kts 88°
2026-04-25 18:39 56.04872 -28.60423 37915 ft 506 kts 88°
2026-04-25 18:39 56.05233 -28.47834 37917 ft 506 kts 88°
2026-04-25 18:40 56.05580 -28.35265 37920 ft 506 kts 88°
2026-04-25 18:40 56.05915 -28.22697 37915 ft 506 kts 88°
2026-04-25 18:41 56.06237 -28.10116 37921 ft 506 kts 88°
2026-04-25 18:41 56.06546 -27.97531 37922 ft 506 kts 88°
2026-04-25 18:42 56.06793 -27.87087 37919 ft 506 kts 88°
2026-04-25 18:42 56.07126 -27.72387 37923 ft 506 kts 88°
2026-04-25 18:43 56.07396 -27.59818 37920 ft 505 kts 89°
2026-04-25 18:43 56.07653 -27.47312 37918 ft 505 kts 89°
2026-04-25 18:44 56.07898 -27.34732 37920 ft 506 kts 89°
2026-04-25 18:44 56.08131 -27.22130 37923 ft 506 kts 89°
2026-04-25 18:45 56.08350 -27.09561 37923 ft 506 kts 89°
2026-04-25 18:45 56.08557 -26.96980 37925 ft 506 kts 89°
2026-04-25 18:46 56.08751 -26.84376 37927 ft 506 kts 89°
2026-04-25 18:46 56.08932 -26.71792 37924 ft 506 kts 89°
2026-04-25 18:47 56.09101 -26.59203 37923 ft 506 kts 89°
2026-04-25 18:47 56.09256 -26.46607 37928 ft 505 kts 89°
2026-04-25 18:48 56.09399 -26.34016 37931 ft 506 kts 90°
2026-04-25 18:48 56.09529 -26.21426 37926 ft 506 kts 90°
2026-04-25 18:49 56.09646 -26.08835 37929 ft 505 kts 90°
2026-04-25 18:49 56.09750 -25.96259 37930 ft 506 kts 90°
2026-04-25 18:50 56.09842 -25.83658 37925 ft 506 kts 90°
2026-04-25 18:50 56.09921 -25.71037 37929 ft 506 kts 90°
2026-04-25 18:51 56.09976 -25.60559 37932 ft 506 kts 90°
2026-04-25 18:51 56.10040 -25.45822 37932 ft 506 kts 90°
2026-04-25 18:52 56.10080 -25.33198 37937 ft 506 kts 91°
2026-04-25 18:52 56.10107 -25.20930 37929 ft 506 kts 91°
2026-04-25 18:53 56.10122 -25.08310 37933 ft 506 kts 91°
2026-04-25 18:53 56.10124 -24.95693 37932 ft 506 kts 91°
2026-04-25 18:54 56.10103 -24.76781 37933 ft 506 kts 91°
2026-04-25 18:55 56.10073 -24.64179 37929 ft 506 kts 91°
2026-04-25 18:55 56.10030 -24.51550 37932 ft 506 kts 91°
2026-04-25 18:56 56.09974 -24.38948 37936 ft 506 kts 91°
2026-04-25 18:56 56.09905 -24.26316 37944 ft 506 kts 92°
2026-04-25 18:57 56.09824 -24.13708 37944 ft 506 kts 92°
2026-04-25 18:57 56.09729 -24.01091 37938 ft 506 kts 92°
2026-04-25 18:58 56.09622 -23.88495 37948 ft 506 kts 92°
2026-04-25 18:58 56.09438 -23.69641 37945 ft 506 kts 92°
2026-04-25 18:59 56.09146 -23.44425 37946 ft 506 kts 92°
2026-04-25 19:00 56.08894 -23.25503 37952 ft 506 kts 93°
2026-04-25 19:01 56.08612 -23.06587 37953 ft 507 kts 93°
2026-04-25 19:01 56.08409 -22.93970 37950 ft 507 kts 93°
2026-04-25 19:02 56.08080 -22.75076 37964 ft 507 kts 93°
2026-04-25 19:03 56.07804 -22.60398 37956 ft 508 kts 94°
2026-04-25 19:03 56.07467 -22.43584 37965 ft 508 kts 94°
2026-04-25 19:04 56.07059 -22.24644 37968 ft 507 kts 94°
2026-04-25 19:05 56.06471 -21.99374 37949 ft 508 kts 94°
2026-04-25 19:06 56.06157 -21.86768 37967 ft 508 kts 94°
2026-04-25 19:06 56.05663 -21.67842 37968 ft 507 kts 95°
2026-04-25 19:07 56.05140 -21.48937 37973 ft 508 kts 95°
2026-04-25 19:08 56.04588 -21.30010 37974 ft 508 kts 95°
2026-04-25 19:09 56.03942 -21.09050 37979 ft 508 kts 95°
2026-04-25 19:10 56.03189 -20.85948 37980 ft 508 kts 96°
2026-04-25 19:10 56.02759 -20.73333 37988 ft 508 kts 96°
2026-04-25 19:11 56.02316 -20.60709 37987 ft 509 kts 96°
2026-04-25 19:11 56.01860 -20.48096 37987 ft 509 kts 96°
2026-04-25 19:12 56.01395 -20.35471 37989 ft 509 kts 96°
2026-04-25 19:12 56.00925 -20.22861 37996 ft 509 kts 96°
2026-04-25 19:13 56.00443 -20.10243 37998 ft 509 kts 96°
2026-04-25 19:13 55.99954 -19.97642 38001 ft 509 kts 95°
2026-04-25 19:14 56.00126 -19.84945 38005 ft 512 kts 89°
2026-04-25 19:14 56.00493 -19.72249 38002 ft 511 kts 90°
2026-04-25 19:15 56.00757 -19.59531 38008 ft 511 kts 90°
2026-04-25 19:15 56.00969 -19.46830 38011 ft 511 kts 91°
2026-04-25 19:16 56.01164 -19.34128 38016 ft 511 kts 91°
2026-04-25 19:16 56.01346 -19.21416 38019 ft 512 kts 91°
2026-04-25 19:17 56.01515 -19.08776 38017 ft 512 kts 91°
2026-04-25 19:17 56.01672 -18.96076 38020 ft 511 kts 91°
2026-04-25 19:18 56.01815 -18.83367 38025 ft 511 kts 91°
2026-04-25 19:18 56.01945 -18.70678 38027 ft 511 kts 91°
2026-04-25 19:19 56.02063 -18.57973 38031 ft 511 kts 92°
2026-04-25 19:19 56.02151 -18.47334 38033 ft 511 kts 92°
2026-04-25 19:20 56.02244 -18.34731 38038 ft 511 kts 92°
2026-04-25 19:20 56.02325 -18.22032 38038 ft 510 kts 92°
2026-04-25 19:21 56.02392 -18.09341 38044 ft 510 kts 92°
2026-04-25 19:21 56.02469 -17.90298 38045 ft 510 kts 92°
2026-04-25 19:22 56.02504 -17.77609 38048 ft 510 kts 92°
2026-04-25 19:23 56.02531 -17.58597 38054 ft 510 kts 93°
2026-04-25 19:23 56.02530 -17.39645 38059 ft 510 kts 93°
2026-04-25 19:24 56.02513 -17.26986 38065 ft 510 kts 93°
2026-04-25 19:25 56.02440 -17.01641 38067 ft 509 kts 93°
2026-04-25 19:25 56.02384 -16.88995 38069 ft 509 kts 94°
2026-04-25 19:26 56.02315 -16.76343 38072 ft 509 kts 94°
2026-04-25 19:26 56.02233 -16.63683 38075 ft 509 kts 94°
2026-04-25 19:27 56.02155 -16.53187 38075 ft 509 kts 94°
2026-04-25 19:27 56.02030 -16.38391 38079 ft 508 kts 94°
2026-04-25 19:28 56.01910 -16.25746 38090 ft 508 kts 94°
2026-04-25 19:28 56.01776 -16.13106 38076 ft 508 kts 94°
2026-04-25 19:29 56.01631 -16.00572 38080 ft 508 kts 94°
2026-04-25 19:29 56.01472 -15.87944 38080 ft 508 kts 95°
2026-04-25 19:30 56.01300 -15.75327 38101 ft 508 kts 95°
2026-04-25 19:30 56.01115 -15.62691 38094 ft 508 kts 95°
2026-04-25 19:31 56.00917 -15.50090 38101 ft 507 kts 95°
2026-04-25 19:31 56.00707 -15.37491 38102 ft 507 kts 95°
2026-04-25 19:32 56.00483 -15.24888 38105 ft 508 kts 95°
2026-04-25 19:32 56.00288 -15.14331 38103 ft 508 kts 95°
2026-04-25 19:33 56.00011 -14.99686 38109 ft 507 kts 95°
2026-04-25 19:33 55.99980 -14.87070 38107 ft 509 kts 92°
2026-04-25 19:34 56.00065 -14.74432 38108 ft 508 kts 92°
2026-04-25 19:34 56.00101 -14.61810 38112 ft 508 kts 93°
2026-04-25 19:35 56.00107 -14.49192 38115 ft 507 kts 93°
2026-04-25 19:35 56.00099 -14.36572 38119 ft 507 kts 93°
2026-04-25 19:36 56.00079 -14.23992 38115 ft 507 kts 93°
2026-04-25 19:36 56.00046 -14.11507 38132 ft 508 kts 93°
2026-04-25 19:37 56.00001 -13.98986 38135 ft 507 kts 93°
2026-04-25 19:37 56.00148 -13.86384 38126 ft 508 kts 91°
2026-04-25 19:38 56.00383 -13.73754 38124 ft 508 kts 91°
2026-04-25 19:38 56.00572 -13.61143 38140 ft 507 kts 91°
2026-04-25 19:39 56.00732 -13.48538 38122 ft 507 kts 91°
2026-04-25 19:39 56.00877 -13.35927 38126 ft 507 kts 92°
2026-04-25 19:40 56.01009 -13.23334 38140 ft 507 kts 92°
2026-04-25 19:40 56.01128 -13.10740 38140 ft 506 kts 92°
2026-04-25 19:41 56.01234 -12.98150 38140 ft 507 kts 92°
2026-04-25 19:41 56.01297 -12.89816 38139 ft 507 kts 92°
2026-04-25 19:42 56.01408 -12.73064 38147 ft 506 kts 92°
2026-04-25 19:42 56.01476 -12.60474 38146 ft 506 kts 92°
2026-04-25 19:43 56.01531 -12.47895 38147 ft 506 kts 92°
2026-04-25 19:43 56.01573 -12.35319 38157 ft 506 kts 92°
2026-04-25 19:44 56.01603 -12.22742 38149 ft 506 kts 92°
2026-04-25 19:44 56.01619 -12.10174 38156 ft 506 kts 92°
2026-04-25 19:45 56.01623 -11.97587 38154 ft 506 kts 93°
2026-04-25 19:45 56.01615 -11.85019 38158 ft 506 kts 93°
2026-04-25 19:46 56.01593 -11.72515 38158 ft 505 kts 93°
2026-04-25 19:46 56.01559 -11.59967 38159 ft 505 kts 93°
2026-04-25 19:47 56.01512 -11.47410 38159 ft 505 kts 93°
2026-04-25 19:47 56.01452 -11.34862 38163 ft 505 kts 93°
2026-04-25 19:48 56.01379 -11.22306 38163 ft 505 kts 93°
2026-04-25 19:48 56.01294 -11.09757 38162 ft 505 kts 93°
2026-04-25 19:49 56.01230 -11.01440 38162 ft 505 kts 93°
2026-04-25 19:49 56.01085 -10.84663 38170 ft 505 kts 94°
2026-04-25 19:50 56.00896 -10.65926 38172 ft 504 kts 94°
2026-04-25 19:51 56.00754 -10.53396 38173 ft 505 kts 94°
2026-04-25 19:51 56.00599 -10.40876 38170 ft 504 kts 94°
2026-04-25 19:52 56.00431 -10.28331 38171 ft 504 kts 94°
2026-04-25 19:52 56.00251 -10.15813 38180 ft 504 kts 94°
2026-04-25 19:53 56.00063 -10.03304 38174 ft 504 kts 94°
2026-04-25 19:53 55.99936 -9.90786 38179 ft 504 kts 92°
2026-04-25 19:54 55.99933 -9.78264 38177 ft 504 kts 92°
2026-04-25 19:54 55.99916 -9.65740 38181 ft 504 kts 92°
2026-04-25 19:55 55.99878 -9.55325 38182 ft 503 kts 93°
2026-04-25 19:55 55.99802 -9.40727 38179 ft 503 kts 93°
2026-04-25 19:56 55.99722 -9.28200 38524 ft 506 kts 93°
2026-04-25 19:56 55.99677 -9.21927 38931 ft 505 kts 93°
2026-04-25 19:56 55.99630 -9.15649 39138 ft 508 kts 93°
2026-04-25 19:57 55.99526 -9.03116 39188 ft 500 kts 93°
2026-04-25 19:57 55.99409 -8.90671 39189 ft 502 kts 93°
2026-04-25 19:58 55.99279 -8.78173 39182 ft 503 kts 93°
2026-04-25 19:58 55.99137 -8.65705 39188 ft 502 kts 93°
2026-04-25 19:59 55.98982 -8.53231 39188 ft 502 kts 93°
2026-04-25 19:59 55.98816 -8.40839 39193 ft 502 kts 94°
2026-04-25 20:00 55.98635 -8.28290 39192 ft 503 kts 94°
2026-04-25 20:00 55.98444 -8.15906 39195 ft 502 kts 94°
2026-04-25 20:01 55.98131 -7.97192 39198 ft 502 kts 94°
2026-04-25 20:01 55.97907 -7.84719 39194 ft 501 kts 94°
2026-04-25 20:02 55.97671 -7.72271 39199 ft 502 kts 94°
2026-04-25 20:02 55.97422 -7.59806 39196 ft 502 kts 94°
2026-04-25 20:03 55.97161 -7.47379 39200 ft 501 kts 94°
2026-04-25 20:03 55.96887 -7.34937 39201 ft 501 kts 94°
2026-04-25 20:04 55.96604 -7.22602 39202 ft 500 kts 94°
2026-04-25 20:04 55.96306 -7.10209 39204 ft 500 kts 94°
2026-04-25 20:05 55.95996 -6.97833 39204 ft 499 kts 94°
2026-04-25 20:05 55.95675 -6.85469 39203 ft 498 kts 94°
2026-04-25 20:06 55.95341 -6.73115 39200 ft 498 kts 94°
2026-04-25 20:06 55.94995 -6.60780 39200 ft 497 kts 95°
2026-04-25 20:07 55.94637 -6.48446 39197 ft 498 kts 95°
2026-04-25 20:07 55.94327 -6.38118 39196 ft 497 kts 95°
2026-04-25 20:08 55.93950 -6.25890 39195 ft 497 kts 95°
2026-04-25 20:08 55.93557 -6.13563 39196 ft 497 kts 95°
2026-04-25 20:09 55.93152 -6.01269 39200 ft 496 kts 95°
2026-04-25 20:09 55.92735 -5.88956 39207 ft 496 kts 95°
2026-04-25 20:10 55.92307 -5.76667 39217 ft 497 kts 95°
2026-04-25 20:10 55.91865 -5.64380 39214 ft 496 kts 95°
2026-04-25 20:11 55.91413 -5.52126 39219 ft 496 kts 95°
2026-04-25 20:11 55.90948 -5.39841 39222 ft 496 kts 95°
2026-04-25 20:12 55.90471 -5.27572 39231 ft 497 kts 96°
2026-04-25 20:12 55.90065 -5.17375 39233 ft 496 kts 96°
2026-04-25 20:13 55.89482 -5.03044 39238 ft 496 kts 96°
2026-04-25 20:13 55.89006 -4.90774 39240 ft 497 kts 92°
2026-04-25 20:14 55.89365 -4.78450 39257 ft 498 kts 87°
2026-04-25 20:14 55.89839 -4.66152 39260 ft 498 kts 87°
2026-04-25 20:15 55.90286 -4.53846 39266 ft 498 kts 88°
2026-04-25 20:15 55.90710 -4.41602 39268 ft 497 kts 88°
2026-04-25 20:16 55.91118 -4.29285 39265 ft 498 kts 88°
2026-04-25 20:16 55.91509 -4.16950 39263 ft 498 kts 88°
2026-04-25 20:17 55.91886 -4.04634 39266 ft 497 kts 88°
2026-04-25 20:17 55.92252 -3.92322 39263 ft 497 kts 88°
2026-04-25 20:18 55.92602 -3.80077 39280 ft 497 kts 88°
2026-04-25 20:18 55.92942 -3.67778 39285 ft 497 kts 88°
2026-04-25 20:19 55.93270 -3.55489 39291 ft 496 kts 88°
2026-04-25 20:19 55.93585 -3.43211 39292 ft 496 kts 88°
2026-04-25 20:20 55.93888 -3.30918 39294 ft 496 kts 88°
2026-04-25 20:20 55.94179 -3.18625 39293 ft 495 kts 89°
2026-04-25 20:21 55.94457 -3.06335 39293 ft 495 kts 89°
2026-04-25 20:21 55.94724 -2.94053 39291 ft 494 kts 89°
2026-04-25 20:22 55.94934 -2.83905 39293 ft 494 kts 89°
2026-04-25 20:22 55.95217 -2.69590 39298 ft 492 kts 89°
2026-04-25 20:23 55.95445 -2.57386 39302 ft 493 kts 89°
2026-04-25 20:23 55.95661 -2.45164 39303 ft 492 kts 89°
2026-04-25 20:24 55.95865 -2.32953 39304 ft 492 kts 89°
2026-04-25 20:24 55.96056 -2.20764 39304 ft 491 kts 89°
2026-04-25 20:25 55.96236 -2.08582 39310 ft 490 kts 89°
2026-04-25 20:25 55.96402 -1.96503 39307 ft 490 kts 89°
2026-04-25 20:26 55.96557 -1.84332 39312 ft 490 kts 89°
2026-04-25 20:26 55.96695 -1.72644 39312 ft 490 kts 89°
2026-04-25 20:27 55.96827 -1.60476 39314 ft 489 kts 89°
2026-04-25 20:27 55.96946 -1.48323 39312 ft 489 kts 89°
2026-04-25 20:28 55.97054 -1.36207 39313 ft 488 kts 89°
2026-04-25 20:28 55.97149 -1.24068 39314 ft 488 kts 90°
2026-04-25 20:29 55.97232 -1.12022 39314 ft 488 kts 90°
2026-04-25 20:29 55.97304 -0.99910 39312 ft 488 kts 90°
2026-04-25 20:30 55.97364 -0.87802 39313 ft 488 kts 90°
2026-04-25 20:30 55.97412 -0.75694 39313 ft 488 kts 90°
2026-04-25 20:31 55.97448 -0.63573 39316 ft 488 kts 90°
2026-04-25 20:31 55.97472 -0.51459 39317 ft 487 kts 90°
2026-04-25 20:32 55.97484 -0.39368 39318 ft 487 kts 90°
2026-04-25 20:32 55.97485 -0.27250 39314 ft 487 kts 90°
2026-04-25 20:33 55.97474 -0.15225 39315 ft 487 kts 90°
2026-04-25 20:33 55.97455 -0.05083 39315 ft 487 kts 90°
2026-04-25 20:34 55.97415 0.08980 39314 ft 487 kts 90°
2026-04-25 20:34 55.97368 0.21075 39313 ft 487 kts 91°
2026-04-25 20:35 55.97309 0.33184 39310 ft 487 kts 91°
2026-04-25 20:35 55.97239 0.45288 39310 ft 488 kts 91°
2026-04-25 20:36 55.97156 0.57405 39312 ft 488 kts 91°
2026-04-25 20:36 55.97062 0.69506 39311 ft 487 kts 91°
2026-04-25 20:37 55.96956 0.81591 39312 ft 487 kts 91°
2026-04-25 20:37 55.96838 0.93703 39306 ft 487 kts 91°
2026-04-25 20:38 55.96708 1.05802 39308 ft 487 kts 91°
2026-04-25 20:38 55.96566 1.17892 39306 ft 488 kts 91°
2026-04-25 20:39 55.96412 1.30003 39301 ft 487 kts 91°
2026-04-25 20:39 55.96304 1.38029 39305 ft 488 kts 91°
2026-04-25 20:40 55.96070 1.54138 39304 ft 487 kts 91°
2026-04-25 20:40 55.95881 1.66244 39303 ft 488 kts 91°
2026-04-25 20:41 55.95680 1.78322 39300 ft 488 kts 91°
2026-04-25 20:41 55.95467 1.90433 39302 ft 488 kts 91°
2026-04-25 20:42 55.95243 2.02504 39305 ft 487 kts 91°
2026-04-25 20:42 55.95006 2.14597 39300 ft 486 kts 91°
2026-04-25 20:43 55.94759 2.26642 39299 ft 486 kts 91°
2026-04-25 20:43 55.94501 2.38606 39299 ft 485 kts 91°
2026-04-25 20:44 55.94231 2.50635 39296 ft 485 kts 91°
2026-04-25 20:44 55.93949 2.62659 39293 ft 485 kts 91°
2026-04-25 20:45 55.93655 2.74667 39289 ft 485 kts 91°
2026-04-25 20:45 55.93349 2.86696 39291 ft 486 kts 91°
2026-04-25 20:46 55.93032 2.98733 39286 ft 486 kts 91°
2026-04-25 20:46 55.92702 3.10773 39280 ft 486 kts 90°
2026-04-25 20:47 55.92365 3.22803 39257 ft 486 kts 90°
2026-04-25 20:47 55.92022 3.34860 39257 ft 487 kts 90°
2026-04-25 20:48 55.91668 3.46920 39240 ft 487 kts 90°
2026-04-25 20:48 55.91556 3.58981 39240 ft 486 kts 84°
2026-04-25 20:49 55.91921 3.71008 39241 ft 486 kts 84°
2026-04-25 20:49 55.92216 3.83058 39251 ft 487 kts 85°
2026-04-25 20:50 55.92447 3.95123 39258 ft 487 kts 85°
2026-04-25 20:50 55.92658 4.07200 39262 ft 487 kts 85°
2026-04-25 20:51 55.92856 4.19190 39265 ft 487 kts 85°
2026-04-25 20:51 55.93044 4.31270 39257 ft 488 kts 85°
2026-04-25 20:52 55.93164 4.39365 39258 ft 488 kts 85°
2026-04-25 20:52 55.93386 4.55463 39258 ft 488 kts 85°
2026-04-25 20:53 55.93514 4.65535 39256 ft 488 kts 85°
2026-04-25 20:53 55.93658 4.77655 39249 ft 488 kts 85°
2026-04-25 20:54 55.93789 4.89760 39244 ft 488 kts 85°
2026-04-25 20:54 55.94041 5.01849 39244 ft 486 kts 79°
2026-04-25 20:55 55.95003 5.13755 39240 ft 485 kts 77°
2026-04-25 20:55 55.95965 5.25683 39235 ft 485 kts 77°
2026-04-25 20:56 55.96916 5.37518 39232 ft 485 kts 77°
2026-04-25 20:56 55.97863 5.49446 39230 ft 485 kts 77°
2026-04-25 20:57 55.98793 5.61381 39226 ft 486 kts 77°
2026-04-25 20:57 55.99712 5.73359 39224 ft 487 kts 77°
2026-04-25 20:58 56.00620 5.85353 39218 ft 487 kts 77°
2026-04-25 20:58 56.01516 5.97342 39215 ft 487 kts 77°
2026-04-25 20:59 56.02401 6.09339 39209 ft 487 kts 77°
2026-04-25 20:59 56.03275 6.21362 39209 ft 488 kts 77°
2026-04-25 21:00 56.03994 6.31371 39193 ft 488 kts 77°
2026-04-25 21:01 56.05413 6.51498 39188 ft 488 kts 77°
2026-04-25 21:01 56.06248 6.63561 39194 ft 489 kts 77°
2026-04-25 21:02 56.07072 6.75650 39183 ft 489 kts 77°
2026-04-25 21:02 56.07885 6.87745 39185 ft 489 kts 77°
2026-04-25 21:03 56.08681 6.99769 39175 ft 490 kts 77°
2026-04-25 21:03 56.09471 7.11888 39175 ft 491 kts 77°
2026-04-25 21:04 56.10250 7.24032 39175 ft 491 kts 77°
2026-04-25 21:04 56.11018 7.36195 39164 ft 491 kts 77°
2026-04-25 21:05 56.11776 7.48388 39157 ft 492 kts 77°
2026-04-25 21:05 56.12522 7.60583 39155 ft 493 kts 77°
2026-04-25 21:06 56.13256 7.72789 39156 ft 493 kts 77°
2026-04-25 21:06 56.13980 7.85035 39145 ft 493 kts 76°
2026-04-25 21:07 56.14693 7.97292 39146 ft 494 kts 76°
2026-04-25 21:07 56.15389 8.09485 39142 ft 495 kts 76°
2026-04-25 21:08 56.16077 8.21760 39140 ft 495 kts 76°
2026-04-25 21:08 56.16756 8.34070 39132 ft 496 kts 76°
2026-04-25 21:09 56.17752 8.52575 39128 ft 497 kts 76°
2026-04-25 21:09 56.18401 8.64926 39124 ft 497 kts 76°
2026-04-25 21:10 56.19040 8.77312 39114 ft 499 kts 76°
2026-04-25 21:10 56.19666 8.89726 39109 ft 499 kts 76°
2026-04-25 21:11 56.20281 9.02151 39107 ft 500 kts 76°
2026-04-25 21:11 56.20884 9.14580 39105 ft 500 kts 76°
2026-04-25 21:12 56.21476 9.27036 39105 ft 501 kts 76°
2026-04-25 21:12 56.21959 9.37428 39108 ft 501 kts 76°
2026-04-25 21:13 56.22625 9.52050 39106 ft 502 kts 76°
2026-04-25 21:13 56.23181 9.64570 39104 ft 503 kts 76°
2026-04-25 21:14 56.23724 9.77091 39099 ft 503 kts 77°
2026-04-25 21:14 56.24256 9.89650 39095 ft 504 kts 77°
2026-04-25 21:15 56.24773 10.02173 39091 ft 504 kts 77°
2026-04-25 21:15 56.25281 10.14753 39094 ft 506 kts 77°
2026-04-25 21:16 56.25777 10.27389 39080 ft 506 kts 77°
2026-04-25 21:16 56.26260 10.40024 39083 ft 506 kts 77°
2026-04-25 21:17 56.26731 10.52676 39080 ft 507 kts 77°
2026-04-25 21:17 56.27190 10.65343 39081 ft 507 kts 77°
2026-04-25 21:18 56.27634 10.77986 39069 ft 507 kts 77°
2026-04-25 21:18 56.28067 10.90666 39071 ft 507 kts 77°
2026-04-25 21:19 56.28487 11.03349 39068 ft 508 kts 78°
2026-04-25 21:19 56.28896 11.16086 39058 ft 509 kts 78°
2026-04-25 21:20 56.29225 11.26667 39045 ft 510 kts 78°
2026-04-25 21:20 56.29674 11.41562 39040 ft 510 kts 78°
2026-04-25 21:21 56.30043 11.54322 39036 ft 511 kts 78°
2026-04-25 21:21 56.30402 11.67128 39028 ft 512 kts 78°
2026-04-25 21:22 56.30747 11.79946 39021 ft 514 kts 79°
2026-04-25 21:22 56.31081 11.92806 39021 ft 514 kts 79°
2026-04-25 21:23 56.31411 12.05699 39010 ft 515 kts 79°
2026-04-25 21:23 56.31730 12.18578 39006 ft 516 kts 79°
2026-04-25 21:24 56.32346 12.31406 38988 ft 512 kts 75°
2026-04-25 21:24 56.33156 12.44092 38983 ft 514 kts 75°
2026-04-25 21:25 56.33919 12.56902 38973 ft 515 kts 76°
2026-04-25 21:25 56.34643 12.69751 38970 ft 518 kts 76°
2026-04-25 21:26 56.35346 12.82649 38971 ft 517 kts 76°
2026-04-25 21:26 56.36036 12.95548 38966 ft 518 kts 77°
2026-04-25 21:27 56.36715 13.08492 38969 ft 518 kts 77°
2026-04-25 21:27 56.37381 13.21435 38967 ft 518 kts 77°
2026-04-25 21:28 56.38032 13.34390 38966 ft 519 kts 77°
2026-04-25 21:28 56.38672 13.47374 38951 ft 519 kts 78°
2026-04-25 21:29 56.39296 13.60344 38956 ft 519 kts 78°
2026-04-25 21:29 56.39904 13.73243 38952 ft 518 kts 78°
2026-04-25 21:30 56.40502 13.86203 38955 ft 519 kts 78°
2026-04-25 21:30 56.40993 13.97090 38952 ft 518 kts 78°
2026-04-25 21:31 56.41659 14.12181 38944 ft 519 kts 79°
2026-04-25 21:31 56.42215 14.25134 38942 ft 519 kts 79°
2026-04-25 21:32 56.42760 14.38160 38936 ft 519 kts 79°
2026-04-25 21:32 56.43290 14.51163 38935 ft 519 kts 79°
2026-04-25 21:33 56.43808 14.64182 38928 ft 520 kts 80°
2026-04-25 21:33 56.44312 14.77224 38924 ft 519 kts 80°
2026-04-25 21:34 56.44803 14.90260 38912 ft 520 kts 80°
2026-04-25 21:34 56.45281 15.03314 38906 ft 520 kts 80°
2026-04-25 21:35 56.45742 15.16334 38902 ft 519 kts 81°
2026-04-25 21:35 56.46193 15.29395 38900 ft 520 kts 81°
2026-04-25 21:36 56.46626 15.42359 38896 ft 520 kts 81°
2026-04-25 21:36 56.47051 15.55503 38904 ft 520 kts 81°
2026-04-25 21:37 56.47324 15.64163 38905 ft 520 kts 81°
2026-04-25 21:37 56.47852 15.81551 38903 ft 520 kts 82°
2026-04-25 21:38 56.48237 15.94713 38896 ft 521 kts 82°
2026-04-25 21:38 56.48602 16.07721 38891 ft 521 kts 82°
2026-04-25 21:39 56.48956 16.20797 38888 ft 521 kts 82°
2026-04-25 21:39 56.49243 16.31775 38888 ft 522 kts 82°
2026-04-25 21:40 56.49573 16.44917 38886 ft 522 kts 83°
2026-04-25 21:40 56.49889 16.58050 38880 ft 522 kts 83°
2026-04-25 21:41 56.50192 16.71201 38879 ft 523 kts 83°
2026-04-25 21:41 56.50481 16.84361 38875 ft 523 kts 83°
2026-04-25 21:42 56.50754 16.97451 38860 ft 524 kts 83°
2026-04-25 21:42 56.51017 17.10727 38862 ft 524 kts 84°
2026-04-25 21:43 56.51263 17.23806 38860 ft 524 kts 84°
2026-04-25 21:43 56.51497 17.37031 38855 ft 525 kts 84°
2026-04-25 21:44 56.51717 17.50243 38850 ft 525 kts 84°
2026-04-25 21:45 56.52021 17.70086 38844 ft 525 kts 84°
2026-04-25 21:45 56.52206 17.83304 38840 ft 526 kts 85°
2026-04-25 21:46 56.52377 17.96540 38836 ft 526 kts 85°
2026-04-25 21:46 56.52534 18.09806 38835 ft 526 kts 85°
2026-04-25 21:47 56.52677 18.23032 38830 ft 526 kts 85°
2026-04-25 21:47 56.52806 18.36321 38827 ft 527 kts 85°
2026-04-25 21:48 56.52920 18.49473 38819 ft 527 kts 86°
2026-04-25 21:48 56.53023 18.62876 38814 ft 527 kts 86°
2026-04-25 21:49 56.53118 18.76095 38811 ft 528 kts 86°
2026-04-25 21:49 56.53167 18.89394 38805 ft 528 kts 88°
2026-04-25 21:50 56.53017 19.02697 38804 ft 528 kts 88°
2026-04-25 21:50 56.52956 19.16016 38801 ft 528 kts 88°
2026-04-25 21:51 56.52857 19.29348 38787 ft 529 kts 88°
2026-04-25 21:51 56.52730 19.42660 38787 ft 529 kts 89°
2026-04-25 21:52 56.52607 19.55979 38782 ft 528 kts 87°
2026-04-25 21:52 56.52809 19.69273 38781 ft 528 kts 85°
2026-04-25 21:53 56.53049 19.82484 38772 ft 528 kts 86°
2026-04-25 21:53 56.53244 19.95773 38772 ft 528 kts 86°
2026-04-25 21:54 56.53411 20.09079 38768 ft 528 kts 86°
2026-04-25 21:54 56.53555 20.22395 38761 ft 529 kts 86°
2026-04-25 21:55 56.53682 20.35716 38758 ft 529 kts 87°
2026-04-25 21:55 56.53795 20.49046 38744 ft 529 kts 87°
2026-04-25 21:56 56.53894 20.62387 38730 ft 529 kts 87°
2026-04-25 21:56 56.53979 20.75728 38720 ft 530 kts 88°
2026-04-25 21:57 56.54050 20.89089 38717 ft 530 kts 88°
2026-04-25 21:57 56.54106 21.02459 38723 ft 530 kts 88°
2026-04-25 21:58 56.54148 21.15727 38725 ft 531 kts 88°
2026-04-25 21:58 56.54175 21.29111 38729 ft 531 kts 88°
2026-04-25 21:59 56.54189 21.42490 38725 ft 531 kts 88°
2026-04-25 21:59 56.54188 21.55897 38713 ft 532 kts 89°
2026-04-25 22:00 56.54158 21.75988 38704 ft 532 kts 89°
2026-04-25 22:00 56.54121 21.89402 38706 ft 533 kts 89°
2026-04-25 22:01 56.54070 22.02835 38697 ft 533 kts 89°
2026-04-25 22:01 56.54016 22.13983 38694 ft 533 kts 89°
2026-04-25 22:02 56.53923 22.29689 38693 ft 534 kts 89°
2026-04-25 22:02 56.53827 22.43135 38688 ft 534 kts 89°
2026-04-25 22:03 56.53718 22.56499 38681 ft 534 kts 90°
2026-04-25 22:03 56.53594 22.69978 38677 ft 533 kts 90°
2026-04-25 22:04 56.53455 22.83392 38673 ft 533 kts 90°
2026-04-25 22:04 56.53302 22.96812 38672 ft 532 kts 90°
2026-04-25 22:05 56.53135 23.10196 38663 ft 532 kts 90°
2026-04-25 22:05 56.52954 23.23584 38663 ft 531 kts 90°
2026-04-25 22:06 56.52758 23.36953 38654 ft 531 kts 91°
2026-04-25 22:06 56.52549 23.50304 38644 ft 530 kts 91°
2026-04-25 22:07 56.52362 23.61500 38642 ft 530 kts 91°
2026-04-25 22:07 56.52088 23.76924 38638 ft 529 kts 91°
2026-04-25 22:08 56.51834 23.90325 38624 ft 530 kts 91°
2026-04-25 22:08 56.51567 24.03667 38625 ft 530 kts 91°
2026-04-25 22:09 56.51286 24.17028 38624 ft 532 kts 92°
2026-04-25 22:09 56.50989 24.30406 38622 ft 531 kts 92°
2026-04-25 22:10 56.50679 24.43775 38613 ft 532 kts 92°
2026-04-25 22:10 56.50356 24.57060 38603 ft 532 kts 92°
2026-04-25 22:11 56.50017 24.70427 38596 ft 531 kts 92°
2026-04-25 22:11 56.49663 24.83785 38596 ft 531 kts 92°
2026-04-25 22:12 56.49296 24.97127 38597 ft 531 kts 92°
2026-04-25 22:12 56.48889 25.08285 38591 ft 531 kts 95°
2026-04-25 22:13 56.48142 25.23738 38593 ft 530 kts 95°
2026-04-25 22:13 56.47525 25.36996 38583 ft 529 kts 95°
2026-04-25 22:14 56.46903 25.50262 38577 ft 528 kts 95°
2026-04-25 22:14 56.46265 25.63497 38572 ft 528 kts 95°
2026-04-25 22:15 56.45612 25.76715 38570 ft 526 kts 95°
2026-04-25 22:16 56.44609 25.96483 38560 ft 526 kts 95°
2026-04-25 22:16 56.43927 26.09579 38557 ft 526 kts 95°
2026-04-25 22:17 56.43227 26.22735 38549 ft 525 kts 95°
2026-04-25 22:17 56.42515 26.35860 38544 ft 525 kts 96°
2026-04-25 22:18 56.41790 26.48965 38536 ft 524 kts 96°
2026-04-25 22:18 56.41051 26.62082 38538 ft 524 kts 96°
2026-04-25 22:19 56.40296 26.75209 38531 ft 525 kts 96°
2026-04-25 22:19 56.39529 26.88317 38529 ft 526 kts 96°
2026-04-25 22:20 56.38745 27.01463 38525 ft 526 kts 96°
2026-04-25 22:20 56.37952 27.14515 38520 ft 527 kts 96°
2026-04-25 22:21 56.37141 27.27646 38511 ft 526 kts 97°
2026-04-25 22:21 56.36316 27.40767 38510 ft 526 kts 97°
2026-04-25 22:22 56.35478 27.53876 38503 ft 526 kts 97°
2026-04-25 22:22 56.34626 27.66977 38497 ft 527 kts 97°
2026-04-25 22:23 56.33760 27.80073 38491 ft 525 kts 97°
2026-04-25 22:23 56.32884 27.93110 38489 ft 525 kts 97°
2026-04-25 22:24 56.31988 28.06221 38484 ft 526 kts 97°
2026-04-25 22:24 56.31082 28.19286 38475 ft 525 kts 97°
2026-04-25 22:25 56.30160 28.32365 38470 ft 526 kts 98°
2026-04-25 22:25 56.29225 28.45438 38462 ft 527 kts 98°
2026-04-25 22:26 56.28437 28.56294 38455 ft 526 kts 98°
2026-04-25 22:26 56.27477 28.69352 38460 ft 526 kts 98°
2026-04-25 22:27 56.26517 28.82216 38452 ft 526 kts 98°
2026-04-25 22:27 56.25530 28.95252 38451 ft 525 kts 98°
2026-04-25 22:28 56.24531 29.08268 38440 ft 525 kts 98°
2026-04-25 22:28 56.23518 29.21276 38445 ft 525 kts 98°
2026-04-25 22:29 56.22491 29.34272 38433 ft 525 kts 98°
2026-04-25 22:29 56.21459 29.47162 38434 ft 524 kts 98°
2026-04-25 22:30 56.19875 29.66617 38431 ft 525 kts 98°
2026-04-25 22:30 56.18975 29.77493 38425 ft 526 kts 98°
2026-04-25 22:31 56.17714 29.92541 38424 ft 522 kts 98°
2026-04-25 22:31 56.16616 30.05462 38421 ft 524 kts 98°
2026-04-25 22:32 56.15504 30.18383 38419 ft 523 kts 98°
2026-04-25 22:32 56.14381 30.31270 38416 ft 526 kts 98°
2026-04-25 22:33 56.13240 30.44207 38414 ft 525 kts 98°
2026-04-25 22:33 56.12089 30.57080 38414 ft 525 kts 98°
2026-04-25 22:34 56.10920 30.70011 38417 ft 525 kts 98°
2026-04-25 22:34 56.09749 30.82835 38412 ft 525 kts 98°
2026-04-25 22:35 56.08566 30.95720 38417 ft 524 kts 98°
2026-04-25 22:35 56.07176 31.08535 38412 ft 526 kts 101°
2026-04-25 22:36 56.05778 31.21382 38420 ft 524 kts 100°
2026-04-25 22:36 56.04375 31.34258 38419 ft 524 kts 100°
2026-04-25 22:37 56.02955 31.46959 38415 ft 524 kts 100°
2026-04-25 22:37 56.01508 31.59725 38415 ft 524 kts 100°
2026-04-25 22:38 56.00049 31.72464 38415 ft 523 kts 100°
2026-04-25 22:38 55.98573 31.85235 38418 ft 524 kts 101°
2026-04-25 22:39 55.97088 31.97960 38412 ft 524 kts 101°
2026-04-25 22:39 55.95588 32.10679 38426 ft 522 kts 101°
2026-04-25 22:40 55.94079 32.23355 38424 ft 522 kts 101°
2026-04-25 22:40 55.92557 32.36022 38415 ft 522 kts 101°
2026-04-25 22:41 55.91034 32.48581 38429 ft 522 kts 101°
2026-04-25 22:41 55.89489 32.61208 38428 ft 521 kts 101°
2026-04-25 22:42 55.87930 32.73826 38432 ft 521 kts 101°
2026-04-25 22:42 55.86379 32.86425 38431 ft 521 kts 98°
2026-04-25 22:43 55.85664 32.99184 38440 ft 517 kts 88°
2026-04-25 22:43 55.85989 33.11909 38439 ft 515 kts 84°
2026-04-25 22:44 55.86386 33.24526 38445 ft 514 kts 84°
2026-04-25 22:44 55.86762 33.37274 38442 ft 515 kts 84°
2026-04-25 22:45 55.87121 33.49903 38294 ft 511 kts 84°
2026-04-25 22:45 55.87297 33.56251 38068 ft 506 kts 84°
2026-04-25 22:45 55.87468 33.62531 37805 ft 506 kts 84°
2026-04-25 22:46 55.87636 33.68796 37520 ft 506 kts 84°
2026-04-25 22:46 55.87799 33.74974 37261 ft 506 kts 84°
2026-04-25 22:46 55.87961 33.81236 36992 ft 507 kts 84°
2026-04-25 22:46 55.88120 33.87507 36732 ft 508 kts 84°
2026-04-25 22:47 55.88276 33.93806 36470 ft 509 kts 84°
2026-04-25 22:47 55.88429 34.00096 36192 ft 508 kts 84°
2026-04-25 22:47 55.88577 34.06379 35598 ft 508 kts 83°
2026-04-25 22:47 55.88724 34.12691 34757 ft 511 kts 83°
2026-04-25 22:48 55.88869 34.19041 33843 ft 515 kts 83°
2026-04-25 22:48 55.89010 34.25404 33084 ft 514 kts 83°
2026-04-25 22:48 55.89145 34.31726 32568 ft 506 kts 83°
2026-04-25 22:48 55.89274 34.37937 32004 ft 500 kts 82°
2026-04-25 22:49 55.89397 34.44106 31282 ft 498 kts 82°
2026-04-25 22:49 55.89515 34.50250 30586 ft 496 kts 82°
2026-04-25 22:49 55.89629 34.56410 29894 ft 494 kts 82°
2026-04-25 22:49 55.89740 34.62517 29164 ft 492 kts 82°
2026-04-25 22:50 55.89847 34.68591 28381 ft 490 kts 82°
2026-04-25 22:50 55.89951 34.74645 27615 ft 487 kts 82°
2026-04-25 22:50 55.90051 34.80662 26876 ft 484 kts 82°
2026-04-25 22:50 55.90148 34.86627 26153 ft 480 kts 82°
2026-04-25 22:51 55.90241 34.92567 25447 ft 476 kts 82°
2026-04-25 22:51 55.90330 34.98430 24760 ft 472 kts 81°
2026-04-25 22:51 55.90416 35.04249 24093 ft 468 kts 81°
2026-04-25 22:51 55.90500 35.10034 23433 ft 464 kts 81°
2026-04-25 22:52 55.90584 35.15748 22740 ft 459 kts 81°
2026-04-25 22:52 55.90665 35.21398 21976 ft 455 kts 81°
2026-04-25 22:52 55.90744 35.27013 21228 ft 450 kts 82°
2026-04-25 22:52 55.90793 35.30692 20738 ft 447 kts 82°
2026-04-25 22:53 55.90888 35.38039 19786 ft 440 kts 82°
2026-04-25 22:53 55.90955 35.43472 19093 ft 436 kts 83°
2026-04-25 22:53 55.91020 35.48840 18408 ft 431 kts 83°
2026-04-25 22:53 55.91082 35.54116 17749 ft 427 kts 84°
2026-04-25 22:54 55.91140 35.59311 17005 ft 422 kts 84°
2026-04-25 22:54 55.91196 35.64518 16201 ft 417 kts 84°
2026-04-25 22:54 55.91248 35.69647 15390 ft 408 kts 85°
2026-04-25 22:54 55.91296 35.74639 14749 ft 396 kts 85°
2026-04-25 22:55 55.91338 35.79433 14530 ft 374 kts 85°
2026-04-25 22:55 55.91376 35.83902 14475 ft 349 kts 83°
2026-04-25 22:55 55.91621 35.88056 14477 ft 326 kts 76°
2026-04-25 22:55 55.91947 35.92035 14482 ft 321 kts 77°
2026-04-25 22:56 55.92259 35.95989 14442 ft 323 kts 77°
2026-04-25 22:56 55.92567 35.99966 14275 ft 325 kts 77°
2026-04-25 22:56 55.92870 36.03948 14030 ft 322 kts 77°
2026-04-25 22:56 55.93165 36.07881 13785 ft 319 kts 78°
2026-04-25 22:57 55.93458 36.11790 13534 ft 318 kts 78°
2026-04-25 22:57 55.93841 36.15636 13268 ft 311 kts 66°
2026-04-25 22:57 55.94894 36.18893 13010 ft 299 kts 41°
2026-04-25 22:57 55.96548 36.20983 12736 ft 287 kts 18°
2026-04-25 22:58 55.98379 36.22218 12470 ft 284 kts 15°
2026-04-25 22:58 56.00241 36.23397 12197 ft 284 kts 15°
2026-04-25 22:58 56.02096 36.24622 11931 ft 283 kts 16°
2026-04-25 22:58 56.03922 36.25900 11898 ft 282 kts 17°
2026-04-25 22:59 56.05759 36.27201 11723 ft 284 kts 17°
2026-04-25 22:59 56.07583 36.28492 11460 ft 283 kts 17°
2026-04-25 22:59 56.09421 36.29800 11196 ft 282 kts 17°
2026-04-25 22:59 56.11241 36.31101 10926 ft 282 kts 17°
2026-04-25 23:00 56.13043 36.32392 10654 ft 280 kts 17°
2026-04-25 23:00 56.14856 36.33694 10427 ft 280 kts 17°
2026-04-25 23:00 56.16640 36.35112 10160 ft 281 kts 24°
2026-04-25 23:00 56.18274 36.37094 9906 ft 285 kts 33°
2026-04-25 23:01 56.19843 36.39264 9720 ft 283 kts 32°
2026-04-25 23:01 56.21420 36.41388 9581 ft 284 kts 32°
2026-04-25 23:01 56.23002 36.43503 9453 ft 284 kts 32°
2026-04-25 23:01 56.24591 36.45633 9216 ft 285 kts 33°
2026-04-25 23:02 56.25939 36.48253 8944 ft 291 kts 55°
2026-04-25 23:02 56.26662 36.51628 8647 ft 295 kts 73°
2026-04-25 23:02 56.27156 36.55187 8337 ft 294 kts 72°
2026-04-25 23:02 56.27677 36.58746 8012 ft 292 kts 71°
2026-04-25 23:03 56.28203 36.62264 7713 ft 291 kts 71°
2026-04-25 23:03 56.28730 36.65770 7428 ft 290 kts 71°
2026-04-25 23:03 56.29252 36.69270 7132 ft 288 kts 71°
2026-04-25 23:03 56.29770 36.72743 6979 ft 286 kts 71°
2026-04-25 23:04 56.30293 36.76191 6973 ft 287 kts 71°
2026-04-25 23:04 56.30653 36.78551 6970 ft 287 kts 71°
2026-04-25 23:04 56.31354 36.83159 6971 ft 288 kts 71°
2026-04-25 23:04 56.32061 36.86484 6975 ft 282 kts 54°
2026-04-25 23:05 56.33299 36.89141 6981 ft 275 kts 38°
2026-04-25 23:05 56.34694 36.91513 6974 ft 276 kts 39°
2026-04-25 23:05 56.36072 36.93932 6975 ft 276 kts 39°
2026-04-25 23:05 56.37445 36.96361 6976 ft 277 kts 39°
2026-04-25 23:06 56.38823 36.98795 6972 ft 277 kts 39°
2026-04-25 23:06 56.40204 37.01228 6975 ft 277 kts 39°
2026-04-25 23:06 56.41440 37.03873 6970 ft 273 kts 53°
2026-04-25 23:06 56.42308 37.06839 6976 ft 260 kts 58°
2026-04-25 23:07 56.43128 37.09704 6973 ft 254 kts 57°
2026-04-25 23:07 56.43949 37.12497 6907 ft 249 kts 57°
2026-04-25 23:07 56.44505 37.15481 6791 ft 257 kts 83°
2026-04-25 23:07 56.44219 37.18667 6639 ft 261 kts 114°
2026-04-25 23:08 56.43133 37.21271 6352 ft 259 kts 144°
2026-04-25 23:08 56.41533 37.22627 6069 ft 253 kts 171°
2026-04-25 23:08 56.39803 37.23141 5972 ft 251 kts 177°
2026-04-25 23:08 56.38074 37.23568 5977 ft 252 kts 175°
2026-04-25 23:09 56.36342 37.24129 5972 ft 253 kts 172°
2026-04-25 23:09 56.34628 37.24816 5980 ft 253 kts 170°
2026-04-25 23:09 56.32937 37.25571 5980 ft 253 kts 169°
2026-04-25 23:09 56.31209 37.26377 5985 ft 254 kts 169°
2026-04-25 23:10 56.29528 37.27169 5984 ft 253 kts 169°
2026-04-25 23:10 56.27799 37.27983 5986 ft 253 kts 169°
2026-04-25 23:10 56.26093 37.28784 5986 ft 253 kts 169°
2026-04-25 23:10 56.24969 37.29310 5984 ft 253 kts 169°
2026-04-25 23:11 56.23257 37.30135 5993 ft 254 kts 168°
2026-04-25 23:11 56.21760 37.30888 6003 ft 254 kts 168°
2026-04-25 23:11 56.20056 37.31748 6001 ft 254 kts 168°
2026-04-25 23:11 56.18364 37.32646 5991 ft 255 kts 160°
2026-04-25 23:12 56.16592 37.35390 5994 ft 260 kts 118°
2026-04-25 23:12 56.16166 37.37424 5994 ft 258 kts 97°
2026-04-25 23:12 56.16266 37.40583 5995 ft 253 kts 69°
2026-04-25 23:12 56.16915 37.43495 5991 ft 251 kts 61°
2026-04-25 23:13 56.17618 37.46361 5988 ft 252 kts 64°
2026-04-25 23:13 56.18228 37.49260 5912 ft 252 kts 67°
2026-04-25 23:13 56.18760 37.52252 5775 ft 250 kts 70°
2026-04-25 23:13 56.19238 37.55262 5467 ft 251 kts 71°
2026-04-25 23:14 56.19434 37.58367 5164 ft 254 kts 97°
2026-04-25 23:14 56.18787 37.61279 4907 ft 253 kts 127°
2026-04-25 23:14 56.17600 37.63585 4626 ft 251 kts 139°
2026-04-25 23:14 56.16293 37.65639 4419 ft 247 kts 141°
2026-04-25 23:15 56.15035 37.67644 4327 ft 238 kts 139°
2026-04-25 23:15 56.13869 37.69614 4276 ft 227 kts 137°
2026-04-25 23:15 56.12769 37.71555 4139 ft 217 kts 137°
2026-04-25 23:15 56.11743 37.73410 3980 ft 208 kts 136°
2026-04-25 23:16 56.10704 37.75301 4001 ft 215 kts 136°
2026-04-25 23:16 56.09593 37.77073 3995 ft 209 kts 155°
2026-04-25 23:16 56.08293 37.77561 3997 ft 181 kts 196°
2026-04-25 23:16 56.07198 37.76952 3997 ft 171 kts 207°
2026-04-25 23:17 56.06092 37.76184 4001 ft 169 kts 207°
2026-04-25 23:17 56.04998 37.75451 4002 ft 169 kts 205°
2026-04-25 23:17 56.03883 37.74754 4003 ft 169 kts 204°
2026-04-25 23:17 56.02763 37.74088 4002 ft 170 kts 206°
2026-04-25 23:18 56.01814 37.72808 4015 ft 183 kts 243°
2026-04-25 23:18 56.01392 37.70691 3760 ft 175 kts 259°
2026-04-25 23:18 56.01120 37.68485 3472 ft 193 kts 260°
2026-04-25 23:18 56.00821 37.66289 3177 ft 166 kts 258°
2026-04-25 23:19 56.00556 37.64463 2950 ft 142 kts 258°
2026-04-25 23:19 56.00314 37.62822 2771 ft 133 kts 258°
2026-04-25 23:19 56.00081 37.61251 2582 ft 132 kts 258°
2026-04-25 23:19 55.99844 37.59648 2395 ft 131 kts 258°
2026-04-25 23:20 55.99614 37.58104 2217 ft 130 kts 257°
2026-04-25 23:20 55.99378 37.56523 2044 ft 130 kts 257°
2026-04-25 23:20 55.99151 37.54991 1859 ft 130 kts 257°
2026-04-25 23:20 55.98916 37.53418 1677 ft 130 kts 256°
2026-04-25 23:21 55.98681 37.51863 1492 ft 133 kts 255°
2026-04-25 23:21 55.98445 37.50245 1316 ft 136 kts 254°
2026-04-25 23:21 55.98205 37.48605 1153 ft 137 kts 252°
2026-04-25 23:21 55.97950 37.46943 979 ft 139 kts 252°
2026-04-25 23:22 55.97707 37.45275 789 ft 138 kts 252°
2026-04-25 23:22 55.97459 37.43629 656 ft 137 kts 252°
2026-04-25 23:22 55.97246 37.42205 648 ft 92 kts 256°
2026-04-25 23:23 55.97053 37.41122 651 ft 28 kts 233°
2026-04-25 23:23 55.96928 37.40868 646 ft 24 kts 224°
2026-04-25 23:23 55.96892 37.40806 650 ft 0 kts 224°
2026-04-25 23:25 55.96891 37.40805 650 ft 1 kts 224°
2026-04-25 23:25 55.96890 37.40803 645 ft 4 kts 224°
2026-04-25 23:25 55.96856 37.40743 651 ft 4 kts 225°
2026-04-25 23:26 55.96845 37.40725 649 ft 3 kts 225°
2026-04-25 23:26 55.96831 37.40699 651 ft 2 kts 226°
2026-04-25 23:26 55.96792 37.40593 646 ft 17 kts 251°
2026-04-25 23:26 55.96766 37.40376 645 ft 19 kts 256°
2026-04-25 23:27 55.96743 37.40216 646 ft 0 kts 255°
2026-04-25 23:27 55.96741 37.40202 648 ft 2 kts 255°
2026-04-25 23:27 55.96730 37.40149 646 ft 7 kts 236°
2026-04-25 23:27 55.96690 37.40106 649 ft 8 kts 185°
2026-04-25 23:28 55.96635 37.40140 646 ft 10 kts 154°
2026-04-25 23:28 55.96564 37.40190 646 ft 12 kts 165°
2026-04-25 23:28 55.96494 37.40257 644 ft 11 kts 116°
2026-04-25 23:28 55.96488 37.40370 644 ft 0 kts 93°